Wetterdaten: aktuell Freitag, 27.11.2020 07:21
Datum Zeit Temp. A. Feuchte A. Luftdruck Regen Wind Richtung Richtung Sonnenschein ET UV Solar Taupunkt Windchill Windben Empfang
27.11.2020 07:21 0,7 C 78 % 1023,9 hPa 0,0 l/m 3,2 km/h (1 Bft) SW 225 0 min 0,000 mm 0,0 UV-I 0 W/m -2,7 C 0,7 C 4,8 km/h (1 Bft) 95,65 %
27.11.2020 07:20 0,7 C 78 % 1023,9 hPa 0,0 l/m 4,8 km/h (1 Bft) SW 225 0 min 0,000 mm 0,0 UV-I 0 W/m -2,7 C -0,7 C 6,4 km/h (2 Bft) 95,65 %
27.11.2020 07:19 0,7 C 78 % 1023,9 hPa 0,0 l/m 4,8 km/h (1 Bft) SW 225 0 min 0,000 mm 0,0 UV-I 0 W/m -2,7 C -0,7 C 8,0 km/h (2 Bft) 95,65 %
27.11.2020 07:18 0,7 C 78 % 1023,9 hPa 0,0 l/m 6,4 km/h (2 Bft) SW 225 0 min 0,000 mm 0,0 UV-I 0 W/m -2,7 C -1,4 C 8,0 km/h (2 Bft) 95,65 %
27.11.2020 07:17 0,7 C 78 % 1024,0 hPa 0,0 l/m 6,4 km/h (2 Bft) SW 225 0 min 0,000 mm 0,0 UV-I 0 W/m -2,7 C -1,4 C 8,0 km/h (2 Bft) 86,96 %
27.11.2020 07:16 0,6 C 78 % 1023,9 hPa 0,0 l/m 6,4 km/h (2 Bft) SW 225 0 min 0,000 mm 0,0 UV-I 0 W/m -2,8 C -1,5 C 8,0 km/h (2 Bft) 95,65 %
27.11.2020 07:15 0,6 C 79 % 1023,8 hPa 0,0 l/m 6,4 km/h (2 Bft) SW 225 0 min 0,000 mm 0,0 UV-I 0 W/m -2,6 C -1,5 C 8,0 km/h (2 Bft) 86,96 %
27.11.2020 07:14 0,4 C 79 % 1023,8 hPa 0,0 l/m 8,0 km/h (2 Bft) SW 225 0 min 0,000 mm 0,0 UV-I 0 W/m -2,8 C -2,3 C 8,0 km/h (2 Bft) 95,65 %
27.11.2020 07:13 0,4 C 80 % 1023,8 hPa 0,0 l/m 8,0 km/h (2 Bft) SW 225 0 min 0,000 mm 0,0 UV-I 0 W/m -2,6 C -2,3 C 8,0 km/h (2 Bft) 82,61 %
27.11.2020 07:12 0,3 C 80 % 1023,8 hPa 0,0 l/m 6,4 km/h (2 Bft) SW 225 0 min 0,000 mm 0,0 UV-I 0 W/m -2,7 C -1,8 C 8,0 km/h (2 Bft) 100,00 %
27.11.2020 07:11 0,2 C 80 % 1023,8 hPa 0,0 l/m 6,4 km/h (2 Bft) SW 225 0 min 0,000 mm 0,0 UV-I 0 W/m -2,8 C -2,0 C 8,0 km/h (2 Bft) 78,26 %
27.11.2020 07:10 0,1 C 80 % 1023,7 hPa 0,0 l/m 6,4 km/h (2 Bft) SW 225 0 min 0,000 mm 0,0 UV-I 0 W/m -2,9 C -2,1 C 8,0 km/h (2 Bft) 78,26 %
27.11.2020 07:09 0,0 C 81 % 1023,7 hPa 0,0 l/m 6,4 km/h (2 Bft) SW 225 0 min 0,000 mm 0,0 UV-I 0 W/m -2,9 C -2,2 C 6,4 km/h (2 Bft) 78,26 %
27.11.2020 07:08 -0,1 C 82 % 1023,7 hPa 0,0 l/m 4,8 km/h (1 Bft) SW 225 0 min 0,000 mm 0,0 UV-I 0 W/m -2,8 C -1,6 C 6,4 km/h (2 Bft) 69,57 %
27.11.2020 07:07 -0,1 C 82 % 1023,7 hPa 0,0 l/m 6,4 km/h (2 Bft) SW 225 0 min 0,000 mm 0,0 UV-I 0 W/m -2,8 C -2,3 C 8,0 km/h (2 Bft) 82,61 %
27.11.2020 07:06 -0,2 C 82 % 1023,7 hPa 0,0 l/m 6,4 km/h (2 Bft) SW 225 0 min 0,000 mm 0,0 UV-I 0 W/m -2,9 C -2,4 C 8,0 km/h (2 Bft) 82,61 %
27.11.2020 07:05 -0,3 C 82 % 1023,7 hPa 0,0 l/m 6,4 km/h (2 Bft) SW 225 0 min 0,000 mm 0,0 UV-I 0 W/m -3,0 C -2,5 C 8,0 km/h (2 Bft) 95,65 %
27.11.2020 07:04 -0,3 C 82 % 1023,7 hPa 0,0 l/m 6,4 km/h (2 Bft) SW 225 0 min 0,000 mm 0,0 UV-I 0 W/m -3,0 C -2,5 C 8,0 km/h (2 Bft) 95,65 %
27.11.2020 07:03 -0,4 C 83 % 1023,7 hPa 0,0 l/m 4,8 km/h (1 Bft) SW 225 0 min 0,000 mm 0,0 UV-I 0 W/m -2,9 C -1,9 C 6,4 km/h (2 Bft) 82,61 %
27.11.2020 07:02 -0,6 C 83 % 1023,8 hPa 0,0 l/m 6,4 km/h (2 Bft) SW 225 0 min 0,000 mm 0,0 UV-I 0 W/m -3,1 C -2,9 C 8,0 km/h (2 Bft) 82,61 %
27.11.2020 07:01 -0,7 C 84 % 1023,8 hPa 0,0 l/m 6,4 km/h (2 Bft) SW 225 0 min 0,000 mm 0,0 UV-I 0 W/m -3,1 C -3,0 C 8,0 km/h (2 Bft) 82,61 %
27.11.2020 07:00 -0,7 C 84 % 1023,8 hPa 0,0 l/m 6,4 km/h (2 Bft) SW 225 0 min 0,000 mm 0,0 UV-I 0 W/m -3,1 C -3,0 C 6,4 km/h (2 Bft) 86,96 %
27.11.2020 06:59 -0,8 C 84 % 1023,8 hPa 0,0 l/m 6,4 km/h (2 Bft) SW 225 0 min 0,000 mm 0,0 UV-I 0 W/m -3,2 C -3,1 C 8,0 km/h (2 Bft) 82,61 %
27.11.2020 06:58 -0,9 C 84 % 1023,7 hPa 0,0 l/m 6,4 km/h (2 Bft) SW 225 0 min 0,000 mm 0,0 UV-I 0 W/m -3,3 C -3,2 C 6,4 km/h (2 Bft) 73,91 %
27.11.2020 06:57 -0,9 C 85 % 1023,8 hPa 0,0 l/m 4,8 km/h (1 Bft) SW 225 0 min 0,000 mm 0,0 UV-I 0 W/m -3,1 C -2,5 C 6,4 km/h (2 Bft) 95,65 %
27.11.2020 06:56 -1,1 C 85 % 1023,7 hPa 0,0 l/m 6,4 km/h (2 Bft) SW 225 0 min 0,000 mm 0,0 UV-I 0 W/m -3,3 C -3,5 C 6,4 km/h (2 Bft) 73,91 %
27.11.2020 06:55 -1,1 C 86 % 1023,8 hPa 0,0 l/m 6,4 km/h (2 Bft) SW 225 0 min 0,000 mm 0,0 UV-I 0 W/m -3,1 C -3,5 C 8,0 km/h (2 Bft) 78,26 %
27.11.2020 06:54 -1,1 C 86 % 1023,8 hPa 0,0 l/m 6,4 km/h (2 Bft) SW 225 0 min 0,000 mm 0,0 UV-I 0 W/m -3,1 C -3,5 C 6,4 km/h (2 Bft) 65,22 %
27.11.2020 06:53 -1,2 C 86 % 1023,7 hPa 0,0 l/m 6,4 km/h (2 Bft) SW 225 0 min 0,000 mm 0,0 UV-I 0 W/m -3,2 C -3,6 C 6,4 km/h (2 Bft) 78,26 %
27.11.2020 06:52 -1,3 C 86 % 1023,7 hPa 0,0 l/m 6,4 km/h (2 Bft) SW 225 0 min 0,000 mm 0,0 UV-I 0 W/m -3,3 C -3,7 C 6,4 km/h (2 Bft) 65,22 %
27.11.2020 06:51 -1,4 C 87 % 1023,7 hPa 0,0 l/m 6,4 km/h (2 Bft) SW 225 0 min 0,000 mm 0,0 UV-I 0 W/m -3,3 C -3,8 C 6,4 km/h (2 Bft) 73,91 %
27.11.2020 06:50 -1,4 C 88 % 1023,7 hPa 0,0 l/m 6,4 km/h (2 Bft) SW 225 0 min 0,000 mm 0,0 UV-I 0 W/m -3,1 C -3,8 C 6,4 km/h (2 Bft) 95,65 %
27.11.2020 06:49 -1,5 C 89 % 1023,6 hPa 0,0 l/m 6,4 km/h (2 Bft) W-SW 247 0 min 0,000 mm 0,0 UV-I 0 W/m -3,1 C -3,9 C 6,4 km/h (2 Bft) 95,65 %
27.11.2020 06:48 -1,6 C 90 % 1023,7 hPa 0,0 l/m 6,4 km/h (2 Bft) W-SW 247 0 min 0,000 mm 0,0 UV-I 0 W/m -3,0 C -4,0 C 6,4 km/h (2 Bft) 100,00 %
27.11.2020 06:47 -1,6 C 90 % 1023,7 hPa 0,0 l/m 6,4 km/h (2 Bft) W-SW 247 0 min 0,000 mm 0,0 UV-I 0 W/m -3,0 C -4,0 C 6,4 km/h (2 Bft) 95,65 %
27.11.2020 06:46 -1,6 C 90 % 1023,7 hPa 0,0 l/m 6,4 km/h (2 Bft) W-SW 247 0 min 0,000 mm 0,0 UV-I 0 W/m -3,0 C -4,0 C 6,4 km/h (2 Bft) 86,96 %
27.11.2020 06:45 -1,6 C 90 % 1023,7 hPa 0,0 l/m 6,4 km/h (2 Bft) W-SW 247 0 min 0,000 mm 0,0 UV-I 0 W/m -3,0 C -4,0 C 6,4 km/h (2 Bft) 78,26 %
27.11.2020 06:44 -1,6 C 89 % 1023,7 hPa 0,0 l/m 6,4 km/h (2 Bft) W-SW 247 0 min 0,000 mm 0,0 UV-I 0 W/m -3,2 C -4,0 C 6,4 km/h (2 Bft) 100,00 %
27.11.2020 06:43 -1,5 C 89 % 1023,7 hPa 0,0 l/m 6,4 km/h (2 Bft) W-SW 247 0 min 0,000 mm 0,0 UV-I 0 W/m -3,1 C -3,9 C 8,0 km/h (2 Bft) 91,30 %
27.11.2020 06:42 -1,4 C 88 % 1023,7 hPa 0,0 l/m 6,4 km/h (2 Bft) W-SW 247 0 min 0,000 mm 0,0 UV-I 0 W/m -3,1 C -3,8 C 6,4 km/h (2 Bft) 100,00 %
27.11.2020 06:41 -1,3 C 87 % 1023,7 hPa 0,0 l/m 6,4 km/h (2 Bft) W-SW 247 0 min 0,000 mm 0,0 UV-I 0 W/m -3,2 C -3,7 C 6,4 km/h (2 Bft) 100,00 %
27.11.2020 06:40 -1,2 C 87 % 1023,7 hPa 0,0 l/m 6,4 km/h (2 Bft) W-SW 247 0 min 0,000 mm 0,0 UV-I 0 W/m -3,1 C -3,6 C 6,4 km/h (2 Bft) 100,00 %
27.11.2020 06:39 -1,0 C 87 % 1023,7 hPa 0,0 l/m 6,4 km/h (2 Bft) W-SW 247 0 min 0,000 mm 0,0 UV-I 0 W/m -2,9 C -3,3 C 6,4 km/h (2 Bft) 82,61 %
27.11.2020 06:38 -0,9 C 86 % 1023,7 hPa 0,0 l/m 4,8 km/h (1 Bft) W-SW 247 0 min 0,000 mm 0,0 UV-I 0 W/m -2,9 C -2,5 C 6,4 km/h (2 Bft) 95,65 %
27.11.2020 06:37 -0,9 C 86 % 1023,8 hPa 0,0 l/m 4,8 km/h (1 Bft) W-SW 247 0 min 0,000 mm 0,0 UV-I 0 W/m -2,9 C -2,5 C 6,4 km/h (2 Bft) 95,65 %
27.11.2020 06:36 -0,8 C 86 % 1023,7 hPa 0,0 l/m 4,8 km/h (1 Bft) W-SW 247 0 min 0,000 mm 0,0 UV-I 0 W/m -2,8 C -2,4 C 6,4 km/h (2 Bft) 82,61 %
27.11.2020 06:35 -0,8 C 87 % 1023,7 hPa 0,0 l/m 4,8 km/h (1 Bft) W-SW 247 0 min 0,000 mm 0,0 UV-I 0 W/m -2,7 C -2,4 C 6,4 km/h (2 Bft) 86,96 %
27.11.2020 06:34 -0,8 C 86 % 1023,8 hPa 0,0 l/m 4,8 km/h (1 Bft) W-SW 247 0 min 0,000 mm 0,0 UV-I 0 W/m -2,8 C -2,4 C 6,4 km/h (2 Bft) 86,96 %
27.11.2020 06:33 -0,7 C 86 % 1023,8 hPa 0,0 l/m 4,8 km/h (1 Bft) W-SW 247 0 min 0,000 mm 0,0 UV-I 0 W/m -2,7 C -2,3 C 4,8 km/h (1 Bft) 100,00 %
27.11.2020 06:32 -0,7 C 86 % 1023,7 hPa 0,0 l/m 4,8 km/h (1 Bft) W-SW 247 0 min 0,000 mm 0,0 UV-I 0 W/m -2,7 C -2,3 C 6,4 km/h (2 Bft) 100,00 %
27.11.2020 06:31 -0,6 C 85 % 1023,8 hPa 0,0 l/m 4,8 km/h (1 Bft) W-SW 247 0 min 0,000 mm 0,0 UV-I 0 W/m -2,8 C -2,2 C 6,4 km/h (2 Bft) 100,00 %
27.11.2020 06:30 -0,5 C 85 % 1023,8 hPa 0,0 l/m 4,8 km/h (1 Bft) W 270 0 min 0,000 mm 0,0 UV-I 0 W/m -2,7 C -2,1 C 6,4 km/h (2 Bft) 91,30 %
27.11.2020 06:29 -0,4 C 85 % 1023,9 hPa 0,0 l/m 4,8 km/h (1 Bft) W 270 0 min 0,000 mm 0,0 UV-I 0 W/m -2,6 C -1,9 C 6,4 km/h (2 Bft) 100,00 %
27.11.2020 06:28 -0,4 C 85 % 1023,7 hPa 0,0 l/m 4,8 km/h (1 Bft) W 270 0 min 0,000 mm 0,0 UV-I 0 W/m -2,6 C -1,9 C 4,8 km/h (1 Bft) 95,65 %
27.11.2020 06:27 -0,3 C 85 % 1023,7 hPa 0,0 l/m 4,8 km/h (1 Bft) W 270 0 min 0,000 mm 0,0 UV-I 0 W/m -2,5 C -1,8 C 4,8 km/h (1 Bft) 95,65 %
27.11.2020 06:26 -0,3 C 85 % 1023,7 hPa 0,0 l/m 4,8 km/h (1 Bft) W 270 0 min 0,000 mm 0,0 UV-I 0 W/m -2,5 C -1,8 C 4,8 km/h (1 Bft) 100,00 %
27.11.2020 06:25 -0,3 C 85 % 1023,8 hPa 0,0 l/m 3,2 km/h (1 Bft) W 270 0 min 0,000 mm 0,0 UV-I 0 W/m -2,5 C -0,3 C 4,8 km/h (1 Bft) 100,00 %
27.11.2020 06:24 -0,3 C 85 % 1023,7 hPa 0,0 l/m 3,2 km/h (1 Bft) W 270 0 min 0,000 mm 0,0 UV-I 0 W/m -2,5 C -0,3 C 4,8 km/h (1 Bft) 100,00 %
27.11.2020 06:23 -0,3 C 84 % 1023,8 hPa 0,0 l/m 3,2 km/h (1 Bft) W-SW 247 0 min 0,000 mm 0,0 UV-I 0 W/m -2,7 C -0,3 C 4,8 km/h (1 Bft) 100,00 %
27.11.2020 06:22 -0,3 C 84 % 1023,8 hPa 0,0 l/m 3,2 km/h (1 Bft) W-SW 247 0 min 0,000 mm 0,0 UV-I 0 W/m -2,7 C -0,3 C 3,2 km/h (1 Bft) 100,00 %
27.11.2020 06:21 -0,3 C 84 % 1023,8 hPa 0,0 l/m 1,6 km/h (1 Bft) W-SW 247 0 min 0,000 mm 0,0 UV-I 0 W/m -2,7 C -0,3 C 3,2 km/h (1 Bft) 100,00 %
27.11.2020 06:20 -0,3 C 84 % 1023,8 hPa 0,0 l/m 1,6 km/h (1 Bft) W-SW 247 0 min 0,000 mm 0,0 UV-I 0 W/m -2,7 C -0,3 C 3,2 km/h (1 Bft) 95,65 %
27.11.2020 06:19 -0,3 C 84 % 1023,7 hPa 0,0 l/m 1,6 km/h (1 Bft) W-SW 247 0 min 0,000 mm 0,0 UV-I 0 W/m -2,7 C -0,3 C 3,2 km/h (1 Bft) 100,00 %
27.11.2020 06:18 -0,4 C 84 % 1023,7 hPa 0,0 l/m 3,2 km/h (1 Bft) W-SW 247 0 min 0,000 mm 0,0 UV-I 0 W/m -2,8 C -0,4 C 4,8 km/h (1 Bft) 95,65 %
27.11.2020 06:17 -0,4 C 85 % 1023,8 hPa 0,0 l/m 3,2 km/h (1 Bft) W-SW 247 0 min 0,000 mm 0,0 UV-I 0 W/m -2,6 C -0,4 C 4,8 km/h (1 Bft) 95,65 %
27.11.2020 06:16 -0,4 C 85 % 1023,7 hPa 0,0 l/m 3,2 km/h (1 Bft) W-SW 247 0 min 0,000 mm 0,0 UV-I 0 W/m -2,6 C -0,4 C 4,8 km/h (1 Bft) 100,00 %
27.11.2020 06:15 -0,4 C 85 % 1023,7 hPa 0,0 l/m 3,2 km/h (1 Bft) W-SW 247 0 min 0,000 mm 0,0 UV-I 0 W/m -2,6 C -0,4 C 3,2 km/h (1 Bft) 100,00 %
27.11.2020 06:14 -0,4 C 85 % 1023,7 hPa 0,0 l/m 3,2 km/h (1 Bft) W-SW 247 0 min 0,000 mm 0,0 UV-I 0 W/m -2,6 C -0,4 C 3,2 km/h (1 Bft) 100,00 %
27.11.2020 06:13 -0,4 C 85 % 1023,6 hPa 0,0 l/m 3,2 km/h (1 Bft) W-SW 247 0 min 0,000 mm 0,0 UV-I 0 W/m -2,6 C -0,4 C 4,8 km/h (1 Bft) 95,65 %
27.11.2020 06:12 -0,4 C 85 % 1023,7 hPa 0,0 l/m 3,2 km/h (1 Bft) W-SW 247 0 min 0,000 mm 0,0 UV-I 0 W/m -2,6 C -0,4 C 4,8 km/h (1 Bft) 100,00 %
27.11.2020 06:11 -0,4 C 85 % 1023,6 hPa 0,0 l/m 4,8 km/h (1 Bft) W-SW 247 0 min 0,000 mm 0,0 UV-I 0 W/m -2,6 C -1,9 C 4,8 km/h (1 Bft) 100,00 %
27.11.2020 06:10 -0,4 C 85 % 1023,6 hPa 0,0 l/m 4,8 km/h (1 Bft) W-SW 247 0 min 0,000 mm 0,0 UV-I 0 W/m -2,6 C -1,9 C 4,8 km/h (1 Bft) 95,65 %
27.11.2020 06:09 -0,3 C 85 % 1023,7 hPa 0,0 l/m 4,8 km/h (1 Bft) W-SW 247 0 min 0,000 mm 0,0 UV-I 0 W/m -2,5 C -1,8 C 4,8 km/h (1 Bft) 86,96 %
27.11.2020 06:08 -0,2 C 84 % 1023,6 hPa 0,0 l/m 4,8 km/h (1 Bft) W-SW 247 0 min 0,000 mm 0,0 UV-I 0 W/m -2,6 C -1,7 C 4,8 km/h (1 Bft) 91,30 %
27.11.2020 06:07 -0,2 C 84 % 1023,6 hPa 0,0 l/m 3,2 km/h (1 Bft) W-SW 247 0 min 0,000 mm 0,0 UV-I 0 W/m -2,6 C -0,2 C 4,8 km/h (1 Bft) 82,61 %
27.11.2020 06:06 -0,1 C 84 % 1023,6 hPa 0,0 l/m 3,2 km/h (1 Bft) W-SW 247 0 min 0,000 mm 0,0 UV-I 0 W/m -2,5 C -0,1 C 4,8 km/h (1 Bft) 86,96 %
27.11.2020 06:05 -0,1 C 83 % 1023,7 hPa 0,0 l/m 3,2 km/h (1 Bft) W-SW 247 0 min 0,000 mm 0,0 UV-I 0 W/m -2,6 C -0,1 C 4,8 km/h (1 Bft) 86,96 %
27.11.2020 06:04 0,0 C 83 % 1023,7 hPa 0,0 l/m 4,8 km/h (1 Bft) W-SW 247 0 min 0,000 mm 0,0 UV-I 0 W/m -2,5 C -1,5 C 4,8 km/h (1 Bft) 100,00 %
27.11.2020 06:03 0,0 C 84 % 1023,7 hPa 0,0 l/m 4,8 km/h (1 Bft) W-SW 247 0 min 0,000 mm 0,0 UV-I 0 W/m -2,4 C -1,5 C 4,8 km/h (1 Bft) 100,00 %
27.11.2020 06:02 0,1 C 84 % 1023,7 hPa 0,0 l/m 4,8 km/h (1 Bft) W-SW 247 0 min 0,000 mm 0,0 UV-I 0 W/m -2,3 C -1,4 C 4,8 km/h (1 Bft) 100,00 %
27.11.2020 06:01 0,1 C 84 % 1023,7 hPa 0,0 l/m 4,8 km/h (1 Bft) W-SW 247 0 min 0,000 mm 0,0 UV-I 0 W/m -2,3 C -1,4 C 4,8 km/h (1 Bft) 91,30 %
27.11.2020 06:00 0,2 C 83 % 1023,7 hPa 0,0 l/m 4,8 km/h (1 Bft) W-SW 247 0 min 0,000 mm 0,0 UV-I 0 W/m -2,3 C -1,3 C 4,8 km/h (1 Bft) 95,65 %
27.11.2020 05:59 0,2 C 83 % 1023,7 hPa 0,0 l/m 4,8 km/h (1 Bft) W-SW 247 0 min 0,000 mm 0,0 UV-I 0 W/m -2,3 C -1,3 C 4,8 km/h (1 Bft) 100,00 %
27.11.2020 05:58 0,2 C 83 % 1023,7 hPa 0,0 l/m 4,8 km/h (1 Bft) W-SW 247 0 min 0,000 mm 0,0 UV-I 0 W/m -2,3 C -1,3 C 4,8 km/h (1 Bft) 100,00 %
27.11.2020 05:57 0,2 C 83 % 1023,7 hPa 0,0 l/m 3,2 km/h (1 Bft) W-SW 247 0 min 0,000 mm 0,0 UV-I 0 W/m -2,3 C 0,2 C 4,8 km/h (1 Bft) 100,00 %
27.11.2020 05:56 0,2 C 83 % 1023,7 hPa 0,0 l/m 3,2 km/h (1 Bft) W-SW 247 0 min 0,000 mm 0,0 UV-I 0 W/m -2,3 C 0,2 C 3,2 km/h (1 Bft) 100,00 %
27.11.2020 05:55 0,2 C 83 % 1023,7 hPa 0,0 l/m 3,2 km/h (1 Bft) W-SW 247 0 min 0,000 mm 0,0 UV-I 0 W/m -2,3 C 0,2 C 3,2 km/h (1 Bft) 100,00 %
27.11.2020 05:54 0,2 C 82 % 1023,7 hPa 0,0 l/m 3,2 km/h (1 Bft) W-SW 247 0 min 0,000 mm 0,0 UV-I 0 W/m -2,5 C 0,2 C 4,8 km/h (1 Bft) 100,00 %
27.11.2020 05:53 0,2 C 83 % 1023,7 hPa 0,0 l/m 3,2 km/h (1 Bft) W-SW 247 0 min 0,000 mm 0,0 UV-I 0 W/m -2,3 C 0,2 C 4,8 km/h (1 Bft) 95,65 %
27.11.2020 05:52 0,1 C 83 % 1023,8 hPa 0,0 l/m 3,2 km/h (1 Bft) W-SW 247 0 min 0,000 mm 0,0 UV-I 0 W/m -2,4 C 0,1 C 3,2 km/h (1 Bft) 100,00 %
27.11.2020 05:51 0,1 C 83 % 1023,7 hPa 0,0 l/m 3,2 km/h (1 Bft) W-SW 247 0 min 0,000 mm 0,0 UV-I 0 W/m -2,4 C 0,1 C 4,8 km/h (1 Bft) 100,00 %
27.11.2020 05:50 0,1 C 83 % 1023,8 hPa 0,0 l/m 3,2 km/h (1 Bft) W-SW 247 0 min 0,000 mm 0,0 UV-I 0 W/m -2,4 C 0,1 C 4,8 km/h (1 Bft) 100,00 %
27.11.2020 05:49 0,1 C 83 % 1023,7 hPa 0,0 l/m 3,2 km/h (1 Bft) W-SW 247 0 min 0,000 mm 0,0 UV-I 0 W/m -2,4 C 0,1 C 3,2 km/h (1 Bft) 100,00 %
27.11.2020 05:48 0,1 C 83 % 1023,7 hPa 0,0 l/m 3,2 km/h (1 Bft) W-SW 247 0 min 0,000 mm 0,0 UV-I 0 W/m -2,4 C 0,1 C 3,2 km/h (1 Bft) 100,00 %
27.11.2020 05:47 0,1 C 83 % 1023,7 hPa 0,0 l/m 3,2 km/h (1 Bft) W-SW 247 0 min 0,000 mm 0,0 UV-I 0 W/m -2,4 C 0,1 C 3,2 km/h (1 Bft) 100,00 %
27.11.2020 05:46 0,1 C 84 % 1023,7 hPa 0,0 l/m 3,2 km/h (1 Bft) W-SW 247 0 min 0,000 mm 0,0 UV-I 0 W/m -2,3 C 0,1 C 4,8 km/h (1 Bft) 95,65 %
27.11.2020 05:45 0,2 C 84 % 1023,7 hPa 0,0 l/m 3,2 km/h (1 Bft) W-SW 247 0 min 0,000 mm 0,0 UV-I 0 W/m -2,2 C 0,2 C 4,8 km/h (1 Bft) 100,00 %
27.11.2020 05:44 0,2 C 84 % 1023,7 hPa 0,0 l/m 3,2 km/h (1 Bft) W-SW 247 0 min 0,000 mm 0,0 UV-I 0 W/m -2,2 C 0,2 C 4,8 km/h (1 Bft) 91,30 %
27.11.2020 05:43 0,2 C 84 % 1023,7 hPa 0,0 l/m 4,8 km/h (1 Bft) W-SW 247 0 min 0,000 mm 0,0 UV-I 0 W/m -2,2 C -1,3 C 4,8 km/h (1 Bft) 86,96 %
27.11.2020 05:42 0,2 C 83 % 1023,7 hPa 0,0 l/m 4,8 km/h (1 Bft) W-SW 247 0 min 0,000 mm 0,0 UV-I 0 W/m -2,3 C -1,3 C 6,4 km/h (2 Bft) 95,65 %
27.11.2020 05:41 0,3 C 83 % 1023,7 hPa 0,0 l/m 4,8 km/h (1 Bft) W-SW 247 0 min 0,000 mm 0,0 UV-I 0 W/m -2,2 C -1,2 C 6,4 km/h (2 Bft) 95,65 %
27.11.2020 05:40 0,3 C 83 % 1023,8 hPa 0,0 l/m 4,8 km/h (1 Bft) SW 225 0 min 0,000 mm 0,0 UV-I 0 W/m -2,2 C -1,2 C 4,8 km/h (1 Bft) 100,00 %
27.11.2020 05:39 0,2 C 83 % 1023,7 hPa 0,0 l/m 4,8 km/h (1 Bft) SW 225 0 min 0,000 mm 0,0 UV-I 0 W/m -2,3 C -1,3 C 4,8 km/h (1 Bft) 91,30 %
27.11.2020 05:38 0,3 C 83 % 1023,7 hPa 0,0 l/m 3,2 km/h (1 Bft) SW 225 0 min 0,000 mm 0,0 UV-I 0 W/m -2,2 C 0,3 C 4,8 km/h (1 Bft) 100,00 %
27.11.2020 05:37 0,3 C 83 % 1023,7 hPa 0,0 l/m 3,2 km/h (1 Bft) SW 225 0 min 0,000 mm 0,0 UV-I 0 W/m -2,2 C 0,3 C 4,8 km/h (1 Bft) 100,00 %
27.11.2020 05:36 0,3 C 83 % 1023,7 hPa 0,0 l/m 1,6 km/h (1 Bft) SW 225 0 min 0,000 mm 0,0 UV-I 0 W/m -2,2 C 0,3 C 3,2 km/h (1 Bft) 100,00 %
27.11.2020 05:35 0,3 C 83 % 1023,8 hPa 0,0 l/m 1,6 km/h (1 Bft) SW 225 0 min 0,000 mm 0,0 UV-I 0 W/m -2,2 C 0,3 C 3,2 km/h (1 Bft) 100,00 %
27.11.2020 05:34 0,2 C 83 % 1023,7 hPa 0,0 l/m 1,6 km/h (1 Bft) SW 225 0 min 0,000 mm 0,0 UV-I 0 W/m -2,3 C 0,2 C 3,2 km/h (1 Bft) 100,00 %
27.11.2020 05:33 0,2 C 83 % 1023,6 hPa 0,0 l/m 3,2 km/h (1 Bft) SW 225 0 min 0,000 mm 0,0 UV-I 0 W/m -2,3 C 0,2 C 4,8 km/h (1 Bft) 100,00 %
27.11.2020 05:32 0,2 C 83 % 1023,7 hPa 0,0 l/m 3,2 km/h (1 Bft) SW 225 0 min 0,000 mm 0,0 UV-I 0 W/m -2,3 C 0,2 C 3,2 km/h (1 Bft) 100,00 %
27.11.2020 05:31 0,2 C 83 % 1023,7 hPa 0,0 l/m 3,2 km/h (1 Bft) SW 225 0 min 0,000 mm 0,0 UV-I 0 W/m -2,3 C 0,2 C 4,8 km/h (1 Bft) 100,00 %
27.11.2020 05:30 0,2 C 83 % 1023,7 hPa 0,0 l/m 3,2 km/h (1 Bft) SW 225 0 min 0,000 mm 0,0 UV-I 0 W/m -2,3 C 0,2 C 4,8 km/h (1 Bft) 100,00 %
27.11.2020 05:29 0,2 C 83 % 1023,7 hPa 0,0 l/m 3,2 km/h (1 Bft) SW 225 0 min 0,000 mm 0,0 UV-I 0 W/m -2,3 C 0,2 C 4,8 km/h (1 Bft) 100,00 %
27.11.2020 05:28 0,2 C 83 % 1023,7 hPa 0,0 l/m 3,2 km/h (1 Bft) W-SW 247 0 min 0,000 mm 0,0 UV-I 0 W/m -2,3 C 0,2 C 4,8 km/h (1 Bft) 100,00 %
27.11.2020 05:27 0,2 C 83 % 1023,6 hPa 0,0 l/m 3,2 km/h (1 Bft) W-SW 247 0 min 0,000 mm 0,0 UV-I 0 W/m -2,3 C 0,2 C 3,2 km/h (1 Bft) 100,00 %
27.11.2020 05:26 0,2 C 83 % 1023,8 hPa 0,0 l/m 3,2 km/h (1 Bft) W-SW 247 0 min 0,000 mm 0,0 UV-I 0 W/m -2,3 C 0,2 C 3,2 km/h (1 Bft) 100,00 %
27.11.2020 05:25 0,2 C 83 % 1023,7 hPa 0,0 l/m 3,2 km/h (1 Bft) W-SW 247 0 min 0,000 mm 0,0 UV-I 0 W/m -2,3 C 0,2 C 3,2 km/h (1 Bft) 91,30 %
27.11.2020 05:24 0,2 C 83 % 1023,7 hPa 0,0 l/m 3,2 km/h (1 Bft) W 270 0 min 0,000 mm 0,0 UV-I 0 W/m -2,3 C 0,2 C 4,8 km/h (1 Bft) 95,65 %
27.11.2020 05:23 0,2 C 83 % 1023,6 hPa 0,0 l/m 3,2 km/h (1 Bft) W 270 0 min 0,000 mm 0,0 UV-I 0 W/m -2,3 C 0,2 C 3,2 km/h (1 Bft) 100,00 %
27.11.2020 05:22 0,1 C 83 % 1023,8 hPa 0,0 l/m 3,2 km/h (1 Bft) W 270 0 min 0,000 mm 0,0 UV-I 0 W/m -2,4 C 0,1 C 4,8 km/h (1 Bft) 100,00 %
27.11.2020 05:21 0,2 C 83 % 1023,7 hPa 0,0 l/m 3,2 km/h (1 Bft) W 270 0 min 0,000 mm 0,0 UV-I 0 W/m -2,3 C 0,2 C 3,2 km/h (1 Bft) 95,65 %
27.11.2020 05:20 0,2 C 83 % 1023,8 hPa 0,0 l/m 3,2 km/h (1 Bft) W 270 0 min 0,000 mm 0,0 UV-I 0 W/m -2,3 C 0,2 C 4,8 km/h (1 Bft) 100,00 %
27.11.2020 05:19 0,2 C 83 % 1023,8 hPa 0,0 l/m 3,2 km/h (1 Bft) W 270 0 min 0,000 mm 0,0 UV-I 0 W/m -2,3 C 0,2 C 4,8 km/h (1 Bft) 100,00 %
27.11.2020 05:18 0,2 C 83 % 1023,8 hPa 0,0 l/m 3,2 km/h (1 Bft) W 270 0 min 0,000 mm 0,0 UV-I 0 W/m -2,3 C 0,2 C 4,8 km/h (1 Bft) 95,65 %
27.11.2020 05:17 0,2 C 83 % 1023,7 hPa 0,0 l/m 3,2 km/h (1 Bft) W 270 0 min 0,000 mm 0,0 UV-I 0 W/m -2,3 C 0,2 C 4,8 km/h (1 Bft) 100,00 %
27.11.2020 05:16 0,2 C 83 % 1023,7 hPa 0,0 l/m 3,2 km/h (1 Bft) W 270 0 min 0,000 mm 0,0 UV-I 0 W/m -2,3 C 0,2 C 4,8 km/h (1 Bft) 100,00 %
27.11.2020 05:15 0,2 C 83 % 1023,7 hPa 0,0 l/m 3,2 km/h (1 Bft) W 270 0 min 0,000 mm 0,0 UV-I 0 W/m -2,3 C 0,2 C 4,8 km/h (1 Bft) 100,00 %
27.11.2020 05:14 0,2 C 82 % 1023,7 hPa 0,0 l/m 3,2 km/h (1 Bft) W 270 0 min 0,000 mm 0,0 UV-I 0 W/m -2,5 C 0,2 C 4,8 km/h (1 Bft) 100,00 %
27.11.2020 05:13 0,3 C 82 % 1023,8 hPa 0,0 l/m 4,8 km/h (1 Bft) W 270 0 min 0,000 mm 0,0 UV-I 0 W/m -2,4 C -1,2 C 4,8 km/h (1 Bft) 91,30 %
27.11.2020 05:12 0,3 C 81 % 1023,8 hPa 0,0 l/m 3,2 km/h (1 Bft) W-SW 247 0 min 0,000 mm 0,0 UV-I 0 W/m -2,6 C 0,3 C 4,8 km/h (1 Bft) 100,00 %
27.11.2020 05:11 0,4 C 81 % 1023,8 hPa 0,0 l/m 3,2 km/h (1 Bft) W 270 0 min 0,000 mm 0,0 UV-I 0 W/m -2,5 C 0,4 C 4,8 km/h (1 Bft) 100,00 %
27.11.2020 05:10 0,5 C 80 % 1023,8 hPa 0,0 l/m 4,8 km/h (1 Bft) W 270 0 min 0,000 mm 0,0 UV-I 0 W/m -2,5 C -0,9 C 4,8 km/h (1 Bft) 86,96 %
27.11.2020 05:09 0,6 C 80 % 1023,8 hPa 0,0 l/m 4,8 km/h (1 Bft) W 270 0 min 0,000 mm 0,0 UV-I 0 W/m -2,4 C -0,8 C 4,8 km/h (1 Bft) 100,00 %
27.11.2020 05:08 0,7 C 80 % 1023,8 hPa 0,0 l/m 4,8 km/h (1 Bft) W 270 0 min 0,000 mm 0,0 UV-I 0 W/m -2,3 C -0,7 C 4,8 km/h (1 Bft) 95,65 %
27.11.2020 05:07 0,7 C 80 % 1023,9 hPa 0,0 l/m 4,8 km/h (1 Bft) W 270 0 min 0,000 mm 0,0 UV-I 0 W/m -2,3 C -0,7 C 4,8 km/h (1 Bft) 91,30 %
27.11.2020 05:06 0,8 C 79 % 1023,8 hPa 0,0 l/m 4,8 km/h (1 Bft) W 270 0 min 0,000 mm 0,0 UV-I 0 W/m -2,4 C -0,6 C 4,8 km/h (1 Bft) 95,65 %
27.11.2020 05:05 0,8 C 79 % 1023,8 hPa 0,0 l/m 4,8 km/h (1 Bft) W 270 0 min 0,000 mm 0,0 UV-I 0 W/m -2,4 C -0,6 C 4,8 km/h (1 Bft) 95,65 %
27.11.2020 05:04 0,9 C 79 % 1023,8 hPa 0,0 l/m 4,8 km/h (1 Bft) W 270 0 min 0,000 mm 0,0 UV-I 0 W/m -2,3 C -0,5 C 4,8 km/h (1 Bft) 100,00 %
27.11.2020 05:03 0,9 C 78 % 1023,8 hPa 0,0 l/m 3,2 km/h (1 Bft) W 270 0 min 0,000 mm 0,0 UV-I 0 W/m -2,5 C 0,9 C 4,8 km/h (1 Bft) 95,65 %
27.11.2020 05:02 1,0 C 78 % 1023,8 hPa 0,0 l/m 3,2 km/h (1 Bft) W 270 0 min 0,000 mm 0,0 UV-I 0 W/m -2,4 C 1,0 C 4,8 km/h (1 Bft) 100,00 %
27.11.2020 05:01 1,0 C 78 % 1023,7 hPa 0,0 l/m 4,8 km/h (1 Bft) W 270 0 min 0,000 mm 0,0 UV-I 0 W/m -2,4 C -0,4 C 4,8 km/h (1 Bft) 100,00 %
27.11.2020 05:00 1,1 C 78 % 1023,8 hPa 0,0 l/m 4,8 km/h (1 Bft) W 270 0 min 0,025 mm 0,0 UV-I 0 W/m -2,3 C -0,2 C 4,8 km/h (1 Bft) 100,00 %
27.11.2020 04:59 1,1 C 77 % 1023,7 hPa 0,0 l/m 4,8 km/h (1 Bft) W 270 0 min 0,000 mm 0,0 UV-I 0 W/m -2,5 C -0,2 C 6,4 km/h (2 Bft) 100,00 %
27.11.2020 04:58 1,2 C 77 % 1023,8 hPa 0,0 l/m 4,8 km/h (1 Bft) W 270 0 min 0,000 mm 0,0 UV-I 0 W/m -2,4 C -0,1 C 6,4 km/h (2 Bft) 95,65 %
27.11.2020 04:57 1,2 C 77 % 1023,7 hPa 0,0 l/m 4,8 km/h (1 Bft) W 270 0 min 0,000 mm 0,0 UV-I 0 W/m -2,4 C -0,1 C 4,8 km/h (1 Bft) 100,00 %
27.11.2020 04:56 1,2 C 77 % 1023,7 hPa 0,0 l/m 4,8 km/h (1 Bft) W 270 0 min 0,000 mm 0,0 UV-I 0 W/m -2,4 C -0,1 C 4,8 km/h (1 Bft) 91,30 %
27.11.2020 04:55 1,3 C 76 % 1023,7 hPa 0,0 l/m 3,2 km/h (1 Bft) W 270 0 min 0,000 mm 0,0 UV-I 0 W/m -2,5 C 1,3 C 4,8 km/h (1 Bft) 100,00 %
27.11.2020 04:54 1,3 C 76 % 1023,7 hPa 0,0 l/m 3,2 km/h (1 Bft) W 270 0 min 0,000 mm 0,0 UV-I 0 W/m -2,5 C 1,3 C 4,8 km/h (1 Bft) 100,00 %
27.11.2020 04:53 1,3 C 75 % 1023,7 hPa 0,0 l/m 3,2 km/h (1 Bft) W-NW 292 0 min 0,000 mm 0,0 UV-I 0 W/m -2,6 C 1,3 C 4,8 km/h (1 Bft) 95,65 %
27.11.2020 04:52 1,3 C 75 % 1023,6 hPa 0,0 l/m 3,2 km/h (1 Bft) W-NW 292 0 min 0,000 mm 0,0 UV-I 0 W/m -2,6 C 1,3 C 4,8 km/h (1 Bft) 100,00 %
27.11.2020 04:51 1,4 C 75 % 1023,6 hPa 0,0 l/m 3,2 km/h (1 Bft) W-NW 292 0 min 0,000 mm 0,0 UV-I 0 W/m -2,5 C 1,4 C 4,8 km/h (1 Bft) 100,00 %
27.11.2020 04:50 1,4 C 74 % 1023,7 hPa 0,0 l/m 3,2 km/h (1 Bft) W-NW 292 0 min 0,000 mm 0,0 UV-I 0 W/m -2,7 C 1,4 C 4,8 km/h (1 Bft) 100,00 %
27.11.2020 04:49 1,6 C 74 % 1023,7 hPa 0,0 l/m 3,2 km/h (1 Bft) W-NW 292 0 min 0,000 mm 0,0 UV-I 0 W/m -2,5 C 1,6 C 4,8 km/h (1 Bft) 95,65 %
27.11.2020 04:48 1,6 C 74 % 1023,7 hPa 0,0 l/m 3,2 km/h (1 Bft) W-NW 292 0 min 0,000 mm 0,0 UV-I 0 W/m -2,5 C 1,6 C 4,8 km/h (1 Bft) 95,65 %
27.11.2020 04:47 1,6 C 74 % 1023,8 hPa 0,0 l/m 0,0 km/h (0 Bft) W-NW 292 0 min 0,000 mm 0,0 UV-I 0 W/m -2,5 C 1,6 C 1,6 km/h (1 Bft) 100,00 %
27.11.2020 04:46 1,7 C 74 % 1023,7 hPa 0,0 l/m 0,0 km/h (0 Bft) W-NW 292 0 min 0,000 mm 0,0 UV-I 0 W/m -2,4 C 1,7 C 1,6 km/h (1 Bft) 95,65 %
27.11.2020 04:45 1,8 C 73 % 1023,7 hPa 0,0 l/m 1,6 km/h (1 Bft) W-NW 292 0 min 0,000 mm 0,0 UV-I 0 W/m -2,5 C 1,8 C 3,2 km/h (1 Bft) 100,00 %
27.11.2020 04:44 1,8 C 73 % 1023,7 hPa 0,0 l/m 1,6 km/h (1 Bft) W-NW 292 0 min 0,000 mm 0,0 UV-I 0 W/m -2,5 C 1,8 C 3,2 km/h (1 Bft) 100,00 %
27.11.2020 04:43 1,9 C 72 % 1023,7 hPa 0,0 l/m 1,6 km/h (1 Bft) W-NW 292 0 min 0,000 mm 0,0 UV-I 0 W/m -2,6 C 1,9 C 3,2 km/h (1 Bft) 95,65 %
27.11.2020 04:42 1,9 C 72 % 1023,7 hPa 0,0 l/m 1,6 km/h (1 Bft) W-NW 292 0 min 0,000 mm 0,0 UV-I 0 W/m -2,6 C 1,9 C 4,8 km/h (1 Bft) 100,00 %
27.11.2020 04:41 2,0 C 72 % 1023,7 hPa 0,0 l/m 3,2 km/h (1 Bft) W-NW 292 0 min 0,000 mm 0,0 UV-I 0 W/m -2,5 C 2,0 C 4,8 km/h (1 Bft) 100,00 %
27.11.2020 04:40 2,1 C 72 % 1023,7 hPa 0,0 l/m 4,8 km/h (1 Bft) NW 315 0 min 0,000 mm 0,0 UV-I 0 W/m -2,4 C 0,9 C 4,8 km/h (1 Bft) 100,00 %
27.11.2020 04:39 2,1 C 71 % 1023,8 hPa 0,0 l/m 3,2 km/h (1 Bft) NW 315 0 min 0,000 mm 0,0 UV-I 0 W/m -2,6 C 2,1 C 4,8 km/h (1 Bft) 100,00 %
27.11.2020 04:38 2,1 C 72 % 1023,7 hPa 0,0 l/m 0,0 km/h (0 Bft) N 0 0 min 0,000 mm 0,0 UV-I 0 W/m -2,4 C 2,1 C 0,0 km/h (0 Bft) 95,65 %
27.11.2020 04:37 2,2 C 72 % 1023,7 hPa 0,0 l/m 0,0 km/h (0 Bft) N-NW 337 0 min 0,000 mm 0,0 UV-I 0 W/m -2,3 C 2,2 C 1,6 km/h (1 Bft) 100,00 %
27.11.2020 04:36 2,2 C 72 % 1023,7 hPa 0,0 l/m 1,6 km/h (1 Bft) N-NW 337 0 min 0,000 mm 0,0 UV-I 0 W/m -2,3 C 2,2 C 3,2 km/h (1 Bft) 100,00 %
27.11.2020 04:35 2,2 C 72 % 1023,7 hPa 0,0 l/m 1,6 km/h (1 Bft) NW 315 0 min 0,000 mm 0,0 UV-I 0 W/m -2,3 C 2,2 C 3,2 km/h (1 Bft) 100,00 %
27.11.2020 04:34 2,3 C 72 % 1023,7 hPa 0,0 l/m 0,0 km/h (0 Bft) N 0 0 min 0,000 mm 0,0 UV-I 0 W/m -2,2 C 2,3 C 0,0 km/h (0 Bft) 100,00 %
27.11.2020 04:33 2,3 C 72 % 1023,7 hPa 0,0 l/m 0,0 km/h (0 Bft) N 0 0 min 0,000 mm 0,0 UV-I 0 W/m -2,2 C 2,3 C 0,0 km/h (0 Bft) 100,00 %
27.11.2020 04:32 2,3 C 72 % 1023,8 hPa 0,0 l/m 0,0 km/h (0 Bft) W-SW 247 0 min 0,000 mm 0,0 UV-I 0 W/m -2,2 C 2,3 C 1,6 km/h (1 Bft) 100,00 %
27.11.2020 04:31 2,3 C 71 % 1023,7 hPa 0,0 l/m 1,6 km/h (1 Bft) W-SW 247 0 min 0,000 mm 0,0 UV-I 0 W/m -2,4 C 2,3 C 3,2 km/h (1 Bft) 95,65 %
27.11.2020 04:30 2,4 C 71 % 1023,7 hPa 0,0 l/m 3,2 km/h (1 Bft) W-SW 247 0 min 0,000 mm 0,0 UV-I 0 W/m -2,3 C 2,4 C 3,2 km/h (1 Bft) 95,65 %
27.11.2020 04:29 2,4 C 71 % 1023,8 hPa 0,0 l/m 3,2 km/h (1 Bft) W-SW 247 0 min 0,000 mm 0,0 UV-I 0 W/m -2,3 C 2,4 C 3,2 km/h (1 Bft) 100,00 %
27.11.2020 04:28 2,4 C 71 % 1023,8 hPa 0,0 l/m 3,2 km/h (1 Bft) W-SW 247 0 min 0,000 mm 0,0 UV-I 0 W/m -2,3 C 2,4 C 3,2 km/h (1 Bft) 100,00 %
27.11.2020 04:27 2,5 C 71 % 1023,8 hPa 0,0 l/m 3,2 km/h (1 Bft) W-SW 247 0 min 0,000 mm 0,0 UV-I 0 W/m -2,2 C 2,5 C 4,8 km/h (1 Bft) 100,00 %
27.11.2020 04:26 2,5 C 71 % 1023,7 hPa 0,0 l/m 3,2 km/h (1 Bft) W-SW 247 0 min 0,000 mm 0,0 UV-I 0 W/m -2,2 C 2,5 C 3,2 km/h (1 Bft) 95,65 %
27.11.2020 04:25 2,5 C 71 % 1023,8 hPa 0,0 l/m 3,2 km/h (1 Bft) W-SW 247 0 min 0,000 mm 0,0 UV-I 0 W/m -2,2 C 2,5 C 4,8 km/h (1 Bft) 100,00 %
27.11.2020 04:24 2,6 C 70 % 1023,7 hPa 0,0 l/m 3,2 km/h (1 Bft) W 270 0 min 0,000 mm 0,0 UV-I 0 W/m -2,3 C 2,6 C 4,8 km/h (1 Bft) 100,00 %
27.11.2020 04:23 2,6 C 70 % 1023,8 hPa 0,0 l/m 3,2 km/h (1 Bft) W 270 0 min 0,000 mm 0,0 UV-I 0 W/m -2,3 C 2,6 C 4,8 km/h (1 Bft) 100,00 %
27.11.2020 04:22 2,7 C 69 % 1023,8 hPa 0,0 l/m 4,8 km/h (1 Bft) W 270 0 min 0,000 mm 0,0 UV-I 0 W/m -2,4 C 1,6 C 4,8 km/h (1 Bft) 91,30 %
27.11.2020 04:21 2,7 C 69 % 1023,8 hPa 0,0 l/m 4,8 km/h (1 Bft) W-NW 292 0 min 0,000 mm 0,0 UV-I 0 W/m -2,4 C 1,6 C 4,8 km/h (1 Bft) 95,65 %
27.11.2020 04:20 2,7 C 69 % 1023,8 hPa 0,0 l/m 4,8 km/h (1 Bft) W 270 0 min 0,000 mm 0,0 UV-I 0 W/m -2,4 C 1,6 C 4,8 km/h (1 Bft) 100,00 %
27.11.2020 04:19 2,7 C 69 % 1023,8 hPa 0,0 l/m 4,8 km/h (1 Bft) W-NW 292 0 min 0,000 mm 0,0 UV-I 0 W/m -2,4 C 1,6 C 6,4 km/h (2 Bft) 100,00 %
27.11.2020 04:18 2,7 C 69 % 1023,8 hPa 0,0 l/m 4,8 km/h (1 Bft) W-NW 292 0 min 0,000 mm 0,0 UV-I 0 W/m -2,4 C 1,6 C 6,4 km/h (2 Bft) 100,00 %
27.11.2020 04:17 2,7 C 69 % 1023,7 hPa 0,0 l/m 4,8 km/h (1 Bft) NW 315 0 min 0,000 mm 0,0 UV-I 0 W/m -2,4 C 1,6 C 4,8 km/h (1 Bft) 100,00 %
27.11.2020 04:16 2,7 C 69 % 1023,8 hPa 0,0 l/m 4,8 km/h (1 Bft) NW 315 0 min 0,000 mm 0,0 UV-I 0 W/m -2,4 C 1,6 C 6,4 km/h (2 Bft) 100,00 %
27.11.2020 04:15 2,7 C 69 % 1023,8 hPa 0,0 l/m 4,8 km/h (1 Bft) NW 315 0 min 0,000 mm 0,0 UV-I 0 W/m -2,4 C 1,6 C 4,8 km/h (1 Bft) 100,00 %
27.11.2020 04:14 2,7 C 69 % 1023,8 hPa 0,0 l/m 3,2 km/h (1 Bft) NW 315 0 min 0,000 mm 0,0 UV-I 0 W/m -2,4 C 2,7 C 4,8 km/h (1 Bft) 100,00 %
27.11.2020 04:13 2,7 C 70 % 1023,7 hPa 0,0 l/m 4,8 km/h (1 Bft) W-NW 292 0 min 0,000 mm 0,0 UV-I 0 W/m -2,2 C 1,6 C 4,8 km/h (1 Bft) 100,00 %
27.11.2020 04:12 2,6 C 70 % 1023,7 hPa 0,0 l/m 4,8 km/h (1 Bft) W-NW 292 0 min 0,000 mm 0,0 UV-I 0 W/m -2,3 C 1,4 C 6,4 km/h (2 Bft) 100,00 %
27.11.2020 04:11 2,6 C 70 % 1023,6 hPa 0,0 l/m 4,8 km/h (1 Bft) W-NW 292 0 min 0,000 mm 0,0 UV-I 0 W/m -2,3 C 1,4 C 6,4 km/h (2 Bft) 100,00 %
27.11.2020 04:10 2,6 C 70 % 1023,6 hPa 0,0 l/m 4,8 km/h (1 Bft) W-NW 292 0 min 0,000 mm 0,0 UV-I 0 W/m -2,3 C 1,4 C 4,8 km/h (1 Bft) 100,00 %
27.11.2020 04:09 2,4 C 71 % 1023,6 hPa 0,0 l/m 4,8 km/h (1 Bft) W-NW 292 0 min 0,000 mm 0,0 UV-I 0 W/m -2,3 C 1,2 C 6,4 km/h (2 Bft) 100,00 %
27.11.2020 04:08 2,3 C 71 % 1023,6 hPa 0,0 l/m 4,8 km/h (1 Bft) W-NW 292 0 min 0,000 mm 0,0 UV-I 0 W/m -2,4 C 1,1 C 6,4 km/h (2 Bft) 100,00 %
27.11.2020 04:07 2,3 C 71 % 1023,6 hPa 0,0 l/m 4,8 km/h (1 Bft) NW 315 0 min 0,000 mm 0,0 UV-I 0 W/m -2,4 C 1,1 C 6,4 km/h (2 Bft) 100,00 %
27.11.2020 04:06 2,2 C 72 % 1023,5 hPa 0,0 l/m 4,8 km/h (1 Bft) NW 315 0 min 0,000 mm 0,0 UV-I 0 W/m -2,3 C 1,0 C 4,8 km/h (1 Bft) 100,00 %
27.11.2020 04:05 2,1 C 72 % 1023,6 hPa 0,0 l/m 3,2 km/h (1 Bft) W-NW 292 0 min 0,000 mm 0,0 UV-I 0 W/m -2,4 C 2,1 C 4,8 km/h (1 Bft) 100,00 %
27.11.2020 04:04 1,9 C 72 % 1023,5 hPa 0,0 l/m 3,2 km/h (1 Bft) W-NW 292 0 min 0,000 mm 0,0 UV-I 0 W/m -2,6 C 1,9 C 4,8 km/h (1 Bft) 91,30 %
27.11.2020 04:03 1,8 C 73 % 1023,5 hPa 0,0 l/m 3,2 km/h (1 Bft) W-NW 292 0 min 0,000 mm 0,0 UV-I 0 W/m -2,5 C 1,8 C 4,8 km/h (1 Bft) 100,00 %
27.11.2020 04:02 1,8 C 73 % 1023,6 hPa 0,0 l/m 3,2 km/h (1 Bft) W-NW 292 0 min 0,000 mm 0,0 UV-I 0 W/m -2,5 C 1,8 C 4,8 km/h (1 Bft) 95,65 %
27.11.2020 04:01 1,6 C 74 % 1023,5 hPa 0,0 l/m 3,2 km/h (1 Bft) W-NW 292 0 min 0,000 mm 0,0 UV-I 0 W/m -2,5 C 1,6 C 4,8 km/h (1 Bft) 100,00 %
27.11.2020 04:00 1,4 C 74 % 1023,6 hPa 0,0 l/m 3,2 km/h (1 Bft) W-NW 292 0 min 0,025 mm 0,0 UV-I 0 W/m -2,7 C 1,4 C 4,8 km/h (1 Bft) 95,65 %
27.11.2020 03:59 1,4 C 74 % 1023,5 hPa 0,0 l/m 3,2 km/h (1 Bft) W-NW 292 0 min 0,000 mm 0,0 UV-I 0 W/m -2,7 C 1,4 C 4,8 km/h (1 Bft) 100,00 %
27.11.2020 03:58 1,3 C 75 % 1023,5 hPa 0,0 l/m 1,6 km/h (1 Bft) W-SW 247 0 min 0,000 mm 0,0 UV-I 0 W/m -2,6 C 1,3 C 3,2 km/h (1 Bft) 100,00 %
27.11.2020 03:57 1,2 C 75 % 1023,5 hPa 0,0 l/m 1,6 km/h (1 Bft) SW 225 0 min 0,000 mm 0,0 UV-I 0 W/m -2,7 C 1,2 C 3,2 km/h (1 Bft) 100,00 %
27.11.2020 03:56 1,2 C 76 % 1023,6 hPa 0,0 l/m 0,0 km/h (0 Bft) N 0 0 min 0,000 mm 0,0 UV-I 0 W/m -2,5 C 1,2 C 0,0 km/h (0 Bft) 100,00 %
27.11.2020 03:55 1,2 C 77 % 1023,6 hPa 0,0 l/m 0,0 km/h (0 Bft) N 0 0 min 0,000 mm 0,0 UV-I 0 W/m -2,4 C 1,2 C 0,0 km/h (0 Bft) 100,00 %
27.11.2020 03:54 1,2 C 77 % 1023,5 hPa 0,0 l/m 0,0 km/h (0 Bft) N 0 0 min 0,000 mm 0,0 UV-I 0 W/m -2,4 C 1,2 C 0,0 km/h (0 Bft) 100,00 %
27.11.2020 03:53 1,2 C 77 % 1023,6 hPa 0,0 l/m 0,0 km/h (0 Bft) N 0 0 min 0,000 mm 0,0 UV-I 0 W/m -2,4 C 1,2 C 0,0 km/h (0 Bft) 95,65 %
27.11.2020 03:52 1,2 C 77 % 1023,5 hPa 0,0 l/m 0,0 km/h (0 Bft) N 0 0 min 0,000 mm 0,0 UV-I 0 W/m -2,4 C 1,2 C 0,0 km/h (0 Bft) 100,00 %
27.11.2020 03:51 1,2 C 77 % 1023,6 hPa 0,0 l/m 0,0 km/h (0 Bft) N 0 0 min 0,000 mm 0,0 UV-I 0 W/m -2,4 C 1,2 C 0,0 km/h (0 Bft) 100,00 %
27.11.2020 03:50 1,2 C 77 % 1023,6 hPa 0,0 l/m 1,6 km/h (1 Bft) SW 225 0 min 0,000 mm 0,0 UV-I 0 W/m -2,4 C 1,2 C 1,6 km/h (1 Bft) 95,65 %
27.11.2020 03:49 1,2 C 77 % 1023,5 hPa 0,0 l/m 1,6 km/h (1 Bft) SW 225 0 min 0,000 mm 0,0 UV-I 0 W/m -2,4 C 1,2 C 3,2 km/h (1 Bft) 100,00 %
27.11.2020 03:48 1,1 C 77 % 1023,5 hPa 0,0 l/m 1,6 km/h (1 Bft) SW 225 0 min 0,000 mm 0,0 UV-I 0 W/m -2,5 C 1,1 C 1,6 km/h (1 Bft) 100,00 %
27.11.2020 03:47 1,1 C 77 % 1023,5 hPa 0,0 l/m 1,6 km/h (1 Bft) SW 225 0 min 0,000 mm 0,0 UV-I 0 W/m -2,5 C 1,1 C 3,2 km/h (1 Bft) 100,00 %
27.11.2020 03:46 1,1 C 77 % 1023,6 hPa 0,0 l/m 1,6 km/h (1 Bft) SW 225 0 min 0,000 mm 0,0 UV-I 0 W/m -2,5 C 1,1 C 3,2 km/h (1 Bft) 100,00 %
27.11.2020 03:45 1,1 C 77 % 1023,6 hPa 0,0 l/m 1,6 km/h (1 Bft) SW 225 0 min 0,000 mm 0,0 UV-I 0 W/m -2,5 C 1,1 C 3,2 km/h (1 Bft) 95,65 %
27.11.2020 03:44 1,1 C 78 % 1023,5 hPa 0,0 l/m 3,2 km/h (1 Bft) SW 225 0 min 0,000 mm 0,0 UV-I 0 W/m -2,3 C 1,1 C 3,2 km/h (1 Bft) 100,00 %
27.11.2020 03:43 1,1 C 78 % 1023,6 hPa 0,0 l/m 3,2 km/h (1 Bft) SW 225 0 min 0,000 mm 0,0 UV-I 0 W/m -2,3 C 1,1 C 3,2 km/h (1 Bft) 100,00 %
27.11.2020 03:42 1,1 C 78 % 1023,5 hPa 0,0 l/m 3,2 km/h (1 Bft) SW 225 0 min 0,000 mm 0,0 UV-I 0 W/m -2,3 C 1,1 C 4,8 km/h (1 Bft) 100,00 %
27.11.2020 03:41 1,1 C 78 % 1023,6 hPa 0,0 l/m 3,2 km/h (1 Bft) SW 225 0 min 0,000 mm 0,0 UV-I 0 W/m -2,3 C 1,1 C 4,8 km/h (1 Bft) 100,00 %
27.11.2020 03:40 1,1 C 78 % 1023,6 hPa 0,0 l/m 3,2 km/h (1 Bft) SW 225 0 min 0,000 mm 0,0 UV-I 0 W/m -2,3 C 1,1 C 4,8 km/h (1 Bft) 100,00 %
27.11.2020 03:39 1,1 C 78 % 1023,6 hPa 0,0 l/m 3,2 km/h (1 Bft) SW 225 0 min 0,000 mm 0,0 UV-I 0 W/m -2,3 C 1,1 C 4,8 km/h (1 Bft) 95,65 %
27.11.2020 03:38 1,2 C 78 % 1023,7 hPa 0,0 l/m 4,8 km/h (1 Bft) SW 225 0 min 0,000 mm 0,0 UV-I 0 W/m -2,2 C -0,1 C 4,8 km/h (1 Bft) 91,30 %
27.11.2020 03:37 1,1 C 78 % 1023,6 hPa 0,0 l/m 4,8 km/h (1 Bft) SW 225 0 min 0,000 mm 0,0 UV-I 0 W/m -2,3 C -0,2 C 4,8 km/h (1 Bft) 95,65 %
27.11.2020 03:36 1,1 C 78 % 1023,6 hPa 0,0 l/m 4,8 km/h (1 Bft) SW 225 0 min 0,000 mm 0,0 UV-I 0 W/m -2,3 C -0,2 C 4,8 km/h (1 Bft) 100,00 %
27.11.2020 03:35 1,2 C 78 % 1023,7 hPa 0,0 l/m 3,2 km/h (1 Bft) SW 225 0 min 0,000 mm 0,0 UV-I 0 W/m -2,2 C 1,2 C 4,8 km/h (1 Bft) 95,65 %
27.11.2020 03:34 1,2 C 78 % 1023,6 hPa 0,0 l/m 3,2 km/h (1 Bft) SW 225 0 min 0,000 mm 0,0 UV-I 0 W/m -2,2 C 1,2 C 4,8 km/h (1 Bft) 95,65 %
27.11.2020 03:33 1,2 C 78 % 1023,6 hPa 0,0 l/m 3,2 km/h (1 Bft) SW 225 0 min 0,000 mm 0,0 UV-I 0 W/m -2,2 C 1,2 C 4,8 km/h (1 Bft) 100,00 %
27.11.2020 03:32 1,2 C 78 % 1023,6 hPa 0,0 l/m 3,2 km/h (1 Bft) W-SW 247 0 min 0,000 mm 0,0 UV-I 0 W/m -2,2 C 1,2 C 4,8 km/h (1 Bft) 95,65 %
27.11.2020 03:31 1,2 C 78 % 1023,7 hPa 0,0 l/m 3,2 km/h (1 Bft) W-SW 247 0 min 0,000 mm 0,0 UV-I 0 W/m -2,2 C 1,2 C 4,8 km/h (1 Bft) 82,61 %
27.11.2020 03:30 1,2 C 78 % 1023,8 hPa 0,0 l/m 3,2 km/h (1 Bft) W-SW 247 0 min 0,000 mm 0,0 UV-I 0 W/m -2,2 C 1,2 C 4,8 km/h (1 Bft) 95,65 %
27.11.2020 03:29 1,3 C 78 % 1023,7 hPa 0,0 l/m 4,8 km/h (1 Bft) W-SW 247 0 min 0,000 mm 0,0 UV-I 0 W/m -2,1 C -0,0 C 4,8 km/h (1 Bft) 82,61 %
27.11.2020 03:28 1,3 C 78 % 1023,7 hPa 0,0 l/m 3,2 km/h (1 Bft) W-SW 247 0 min 0,000 mm 0,0 UV-I 0 W/m -2,1 C 1,3 C 4,8 km/h (1 Bft) 69,57 %
27.11.2020 03:27 1,3 C 78 % 1023,7 hPa 0,0 l/m 4,8 km/h (1 Bft) W-SW 247 0 min 0,000 mm 0,0 UV-I 0 W/m -2,1 C -0,0 C 4,8 km/h (1 Bft) 69,57 %
27.11.2020 03:26 1,3 C 78 % 1023,7 hPa 0,0 l/m 4,8 km/h (1 Bft) W-SW 247 0 min 0,000 mm 0,0 UV-I 0 W/m -2,1 C -0,0 C 4,8 km/h (1 Bft) 78,26 %
27.11.2020 03:25 1,3 C 77 % 1023,8 hPa 0,0 l/m 3,2 km/h (1 Bft) W-SW 247 0 min 0,000 mm 0,0 UV-I 0 W/m -2,3 C 1,3 C 4,8 km/h (1 Bft) 78,26 %
27.11.2020 03:24 1,3 C 77 % 1023,7 hPa 0,0 l/m 3,2 km/h (1 Bft) W-SW 247 0 min 0,000 mm 0,0 UV-I 0 W/m -2,3 C 1,3 C 4,8 km/h (1 Bft) 91,30 %
27.11.2020 03:23 1,3 C 77 % 1023,7 hPa 0,0 l/m 4,8 km/h (1 Bft) W-SW 247 0 min 0,000 mm 0,0 UV-I 0 W/m -2,3 C -0,0 C 4,8 km/h (1 Bft) 95,65 %
27.11.2020 03:22 1,3 C 77 % 1023,7 hPa 0,0 l/m 3,2 km/h (1 Bft) W-SW 247 0 min 0,000 mm 0,0 UV-I 0 W/m -2,3 C 1,3 C 4,8 km/h (1 Bft) 86,96 %
27.11.2020 03:21 1,3 C 77 % 1023,7 hPa 0,0 l/m 3,2 km/h (1 Bft) W 270 0 min 0,000 mm 0,0 UV-I 0 W/m -2,3 C 1,3 C 4,8 km/h (1 Bft) 91,30 %
27.11.2020 03:20 1,3 C 77 % 1023,8 hPa 0,0 l/m 3,2 km/h (1 Bft) W 270 0 min 0,000 mm 0,0 UV-I 0 W/m -2,3 C 1,3 C 4,8 km/h (1 Bft) 100,00 %
27.11.2020 03:19 1,3 C 78 % 1023,7 hPa 0,0 l/m 3,2 km/h (1 Bft) W 270 0 min 0,000 mm 0,0 UV-I 0 W/m -2,1 C 1,3 C 4,8 km/h (1 Bft) 91,30 %
27.11.2020 03:18 1,3 C 78 % 1023,7 hPa 0,0 l/m 1,6 km/h (1 Bft) W-NW 292 0 min 0,000 mm 0,0 UV-I 0 W/m -2,1 C 1,3 C 3,2 km/h (1 Bft) 86,96 %
27.11.2020 03:17 1,3 C 78 % 1023,7 hPa 0,0 l/m 3,2 km/h (1 Bft) W-NW 292 0 min 0,000 mm 0,0 UV-I 0 W/m -2,1 C 1,3 C 3,2 km/h (1 Bft) 95,65 %
27.11.2020 03:16 1,3 C 78 % 1023,8 hPa 0,0 l/m 3,2 km/h (1 Bft) W-NW 292 0 min 0,000 mm 0,0 UV-I 0 W/m -2,1 C 1,3 C 3,2 km/h (1 Bft) 100,00 %
27.11.2020 03:15 1,3 C 78 % 1023,8 hPa 0,0 l/m 3,2 km/h (1 Bft) W-NW 292 0 min 0,000 mm 0,0 UV-I 0 W/m -2,1 C 1,3 C 3,2 km/h (1 Bft) 95,65 %
27.11.2020 03:14 1,2 C 78 % 1023,7 hPa 0,0 l/m 3,2 km/h (1 Bft) W-NW 292 0 min 0,000 mm 0,0 UV-I 0 W/m -2,2 C 1,2 C 3,2 km/h (1 Bft) 95,65 %
27.11.2020 03:13 1,2 C 78 % 1023,8 hPa 0,0 l/m 3,2 km/h (1 Bft) W-NW 292 0 min 0,000 mm 0,0 UV-I 0 W/m -2,2 C 1,2 C 6,4 km/h (2 Bft) 100,00 %
27.11.2020 03:12 1,2 C 78 % 1023,8 hPa 0,0 l/m 3,2 km/h (1 Bft) W 270 0 min 0,000 mm 0,0 UV-I 0 W/m -2,2 C 1,2 C 4,8 km/h (1 Bft) 100,00 %
27.11.2020 03:11 1,2 C 78 % 1023,8 hPa 0,0 l/m 3,2 km/h (1 Bft) W 270 0 min 0,000 mm 0,0 UV-I 0 W/m -2,2 C 1,2 C 3,2 km/h (1 Bft) 100,00 %
27.11.2020 03:10 1,1 C 78 % 1023,9 hPa 0,0 l/m 3,2 km/h (1 Bft) W 270 0 min 0,000 mm 0,0 UV-I 0 W/m -2,3 C 1,1 C 4,8 km/h (1 Bft) 86,96 %
27.11.2020 03:09 1,0 C 79 % 1023,9 hPa 0,0 l/m 4,8 km/h (1 Bft) W 270 0 min 0,000 mm 0,0 UV-I 0 W/m -2,2 C -0,4 C 6,4 km/h (2 Bft) 78,26 %
27.11.2020 03:08 0,9 C 79 % 1023,9 hPa 0,0 l/m 4,8 km/h (1 Bft) W 270 0 min 0,000 mm 0,0 UV-I 0 W/m -2,3 C -0,5 C 4,8 km/h (1 Bft) 69,57 %
27.11.2020 03:07 0,9 C 79 % 1023,9 hPa 0,0 l/m 4,8 km/h (1 Bft) W-SW 247 0 min 0,000 mm 0,0 UV-I 0 W/m -2,3 C -0,5 C 6,4 km/h (2 Bft) 73,91 %
27.11.2020 03:06 0,8 C 79 % 1024,0 hPa 0,0 l/m 4,8 km/h (1 Bft) W-SW 247 0 min 0,000 mm 0,0 UV-I 0 W/m -2,4 C -0,6 C 6,4 km/h (2 Bft) 69,57 %
27.11.2020 03:05 0,8 C 79 % 1024,0 hPa 0,0 l/m 4,8 km/h (1 Bft) W 270 0 min 0,000 mm 0,0 UV-I 0 W/m -2,4 C -0,6 C 6,4 km/h (2 Bft) 69,57 %
27.11.2020 03:04 0,7 C 80 % 1024,1 hPa 0,0 l/m 4,8 km/h (1 Bft) W-SW 247 0 min 0,000 mm 0,0 UV-I 0 W/m -2,3 C -0,7 C 6,4 km/h (2 Bft) 47,83 %
27.11.2020 03:03 0,7 C 80 % 1024,0 hPa 0,0 l/m 6,4 km/h (2 Bft) W-SW 247 0 min 0,000 mm 0,0 UV-I 0 W/m -2,3 C -1,4 C 8,0 km/h (2 Bft) 60,87 %
27.11.2020 03:02 0,7 C 81 % 1024,1 hPa 0,0 l/m 6,4 km/h (2 Bft) W-SW 247 0 min 0,000 mm 0,0 UV-I 0 W/m -2,2 C -1,4 C 8,0 km/h (2 Bft) 39,13 %
27.11.2020 03:01 0,7 C 81 % 1024,1 hPa 0,0 l/m 6,4 km/h (2 Bft) W-SW 247 0 min 0,000 mm 0,0 UV-I 0 W/m -2,2 C -1,4 C 6,4 km/h (2 Bft) 47,83 %
27.11.2020 03:00 0,7 C 81 % 1024,1 hPa 0,0 l/m 4,8 km/h (1 Bft) W-SW 247 0 min 0,025 mm 0,0 UV-I 0 W/m -2,2 C -0,7 C 6,4 km/h (2 Bft) 52,17 %
27.11.2020 02:59 0,7 C 81 % 1024,0 hPa 0,0 l/m 6,4 km/h (2 Bft) W-SW 247 0 min 0,000 mm 0,0 UV-I 0 W/m -2,2 C -1,4 C 8,0 km/h (2 Bft) 39,13 %
27.11.2020 02:58 0,6 C 80 % 1024,1 hPa 0,0 l/m 4,8 km/h (1 Bft) W-SW 247 0 min 0,000 mm 0,0 UV-I 0 W/m -2,4 C -0,8 C 6,4 km/h (2 Bft) 47,83 %
27.11.2020 02:57 0,6 C 80 % 1024,1 hPa 0,0 l/m 6,4 km/h (2 Bft) W-SW 247 0 min 0,000 mm 0,0 UV-I 0 W/m -2,4 C -1,5 C 6,4 km/h (2 Bft) 21,74 %
27.11.2020 02:56 0,6 C 81 % 1024,1 hPa 0,0 l/m 6,4 km/h (2 Bft) SW 225 0 min 0,000 mm 0,0 UV-I 0 W/m -2,3 C -1,5 C 8,0 km/h (2 Bft) 13,04 %
27.11.2020 02:55 0,3 C 81 % 1024,1 hPa 0,0 l/m 6,4 km/h (2 Bft) SW 225 0 min 0,000 mm 0,0 UV-I 0 W/m -2,6 C -1,8 C 6,4 km/h (2 Bft) 8,70 %
27.11.2020 02:54 0,3 C 81 % 1024,2 hPa 0,0 l/m 6,4 km/h (2 Bft) W-SW 247 0 min 0,000 mm 0,0 UV-I 0 W/m -2,6 C -1,8 C 8,0 km/h (2 Bft) 26,09 %
27.11.2020 02:53 0,3 C 82 % 1024,2 hPa 0,0 l/m 4,8 km/h (1 Bft) W-SW 247 0 min 0,000 mm 0,0 UV-I 0 W/m -2,4 C -1,2 C 6,4 km/h (2 Bft) 34,78 %
27.11.2020 02:52 0,2 C 82 % 1024,1 hPa 0,0 l/m 4,8 km/h (1 Bft) W-SW 247 0 min 0,000 mm 0,0 UV-I 0 W/m -2,5 C -1,3 C 6,4 km/h (2 Bft) 39,13 %
27.11.2020 02:51 0,1 C 82 % 1024,3 hPa 0,0 l/m 6,4 km/h (2 Bft) W-SW 247 0 min 0,000 mm 0,0 UV-I 0 W/m -2,6 C -2,1 C 6,4 km/h (2 Bft) 39,13 %
27.11.2020 02:50 0,1 C 83 % 1024,3 hPa 0,0 l/m 6,4 km/h (2 Bft) W-SW 247 0 min 0,000 mm 0,0 UV-I 0 W/m -2,4 C -2,1 C 6,4 km/h (2 Bft) 26,09 %
27.11.2020 02:49 0,0 C 83 % 1024,3 hPa 0,0 l/m 6,4 km/h (2 Bft) W-SW 247 0 min 0,000 mm 0,0 UV-I 0 W/m -2,5 C -2,2 C 6,4 km/h (2 Bft) 34,78 %
27.11.2020 02:48 -0,1 C 83 % 1024,4 hPa 0,0 l/m 6,4 km/h (2 Bft) W-SW 247 0 min 0,000 mm 0,0 UV-I 0 W/m -2,6 C -2,3 C 6,4 km/h (2 Bft) 26,09 %
27.11.2020 02:47 -0,1 C 84 % 1024,3 hPa 0,0 l/m 6,4 km/h (2 Bft) W-SW 247 0 min 0,000 mm 0,0 UV-I 0 W/m -2,5 C -2,3 C 6,4 km/h (2 Bft) 26,09 %
27.11.2020 02:46 -0,1 C 84 % 1024,2 hPa 0,0 l/m 6,4 km/h (2 Bft) W-SW 247 0 min 0,000 mm 0,0 UV-I 0 W/m -2,5 C -2,3 C 6,4 km/h (2 Bft) 26,09 %
27.11.2020 02:45 -0,1 C 84 % 1024,3 hPa 0,0 l/m 4,8 km/h (1 Bft) W-SW 247 0 min 0,000 mm 0,0 UV-I 0 W/m -2,5 C -1,6 C 6,4 km/h (2 Bft) 34,78 %
27.11.2020 02:44 -0,1 C 84 % 1024,2 hPa 0,0 l/m 6,4 km/h (2 Bft) W-SW 247 0 min 0,000 mm 0,0 UV-I 0 W/m -2,5 C -2,3 C 6,4 km/h (2 Bft) 21,74 %
27.11.2020 02:43 -0,1 C 84 % 1024,2 hPa 0,0 l/m 6,4 km/h (2 Bft) W-SW 247 0 min 0,000 mm 0,0 UV-I 0 W/m -2,5 C -2,3 C 6,4 km/h (2 Bft) 21,74 %
27.11.2020 02:42 -0,1 C 85 % 1024,3 hPa 0,0 l/m 4,8 km/h (1 Bft) W-SW 247 0 min 0,000 mm 0,0 UV-I 0 W/m -2,3 C -1,6 C 4,8 km/h (1 Bft) 13,04 %
27.11.2020 02:41 0,1 C 84 % 1024,3 hPa 0,0 l/m 6,4 km/h (2 Bft) W-SW 247 0 min 0,000 mm 0,0 UV-I 0 W/m -2,3 C -2,1 C 6,4 km/h (2 Bft) 8,70 %
27.11.2020 02:40 0,2 C 84 % 1024,3 hPa 0,0 l/m 4,8 km/h (1 Bft) W-SW 247 0 min 0,000 mm 0,0 UV-I 0 W/m -2,2 C -1,3 C 6,4 km/h (2 Bft) 17,39 %
27.11.2020 02:39 0,3 C 82 % 1024,3 hPa 0,0 l/m 6,4 km/h (2 Bft) W-SW 247 0 min 0,000 mm 0,0 UV-I 0 W/m -2,4 C -1,8 C 6,4 km/h (2 Bft) 8,70 %
27.11.2020 02:38 0,4 C 82 % 1024,2 hPa 0,0 l/m 4,8 km/h (1 Bft) W-SW 247 0 min 0,000 mm 0,0 UV-I 0 W/m -2,3 C -1,0 C 6,4 km/h (2 Bft) 13,04 %
27.11.2020 02:37 0,6 C 82 % 1024,3 hPa 0,0 l/m 6,4 km/h (2 Bft) W-SW 247 0 min 0,000 mm 0,0 UV-I 0 W/m -2,1 C -1,5 C 6,4 km/h (2 Bft) 17,39 %
27.11.2020 02:36 0,8 C 81 % 1024,2 hPa 0,0 l/m 6,4 km/h (2 Bft) W 270 0 min 0,000 mm 0,0 UV-I 0 W/m -2,1 C -1,3 C 6,4 km/h (2 Bft) 17,39 %
27.11.2020 02:35 0,9 C 80 % 1024,2 hPa 0,0 l/m 6,4 km/h (2 Bft) W 270 0 min 0,000 mm 0,0 UV-I 0 W/m -2,2 C -1,1 C 6,4 km/h (2 Bft) 30,43 %
27.11.2020 02:34 1,0 C 78 % 1024,3 hPa 0,0 l/m 6,4 km/h (2 Bft) W 270 0 min 0,000 mm 0,0 UV-I 0 W/m -2,4 C -1,0 C 6,4 km/h (2 Bft) 30,43 %
27.11.2020 02:33 1,1 C 78 % 1024,3 hPa 0,0 l/m 4,8 km/h (1 Bft) W 270 0 min 0,000 mm 0,0 UV-I 0 W/m -2,3 C -0,2 C 6,4 km/h (2 Bft) 39,13 %
27.11.2020 02:32 1,2 C 78 % 1024,2 hPa 0,0 l/m 4,8 km/h (1 Bft) W 270 0 min 0,000 mm 0,0 UV-I 0 W/m -2,2 C -0,1 C 6,4 km/h (2 Bft) 65,22 %
27.11.2020 02:31 1,3 C 77 % 1024,1 hPa 0,0 l/m 4,8 km/h (1 Bft) W 270 0 min 0,000 mm 0,0 UV-I 0 W/m -2,3 C -0,0 C 6,4 km/h (2 Bft) 86,96 %
27.11.2020 02:30 1,4 C 77 % 1024,2 hPa 0,0 l/m 4,8 km/h (1 Bft) W 270 0 min 0,000 mm 0,0 UV-I 0 W/m -2,2 C 0,1 C 4,8 km/h (1 Bft) 73,91 %
27.11.2020 02:29 1,5 C 76 % 1024,2 hPa 0,0 l/m 3,2 km/h (1 Bft) W 270 0 min 0,000 mm 0,0 UV-I 0 W/m -2,3 C 1,5 C 4,8 km/h (1 Bft) 86,96 %
27.11.2020 02:28 1,6 C 76 % 1024,2 hPa 0,0 l/m 3,2 km/h (1 Bft) W 270 0 min 0,000 mm 0,0 UV-I 0 W/m -2,2 C 1,6 C 4,8 km/h (1 Bft) 73,91 %
27.11.2020 02:27 1,7 C 75 % 1024,3 hPa 0,0 l/m 3,2 km/h (1 Bft) W 270 0 min 0,000 mm 0,0 UV-I 0 W/m -2,2 C 1,7 C 4,8 km/h (1 Bft) 65,22 %
27.11.2020 02:26 1,8 C 75 % 1024,3 hPa 0,0 l/m 3,2 km/h (1 Bft) W 270 0 min 0,000 mm 0,0 UV-I 0 W/m -2,1 C 1,8 C 4,8 km/h (1 Bft) 56,52 %
27.11.2020 02:25 1,8 C 75 % 1024,3 hPa 0,0 l/m 3,2 km/h (1 Bft) W 270 0 min 0,000 mm 0,0 UV-I 0 W/m -2,1 C 1,8 C 4,8 km/h (1 Bft) 56,52 %
27.11.2020 02:24 1,8 C 74 % 1024,3 hPa 0,0 l/m 3,2 km/h (1 Bft) W 270 0 min 0,000 mm 0,0 UV-I 0 W/m -2,3 C 1,8 C 4,8 km/h (1 Bft) 47,83 %
27.11.2020 02:23 1,8 C 74 % 1024,3 hPa 0,0 l/m 3,2 km/h (1 Bft) W 270 0 min 0,000 mm 0,0 UV-I 0 W/m -2,3 C 1,8 C 4,8 km/h (1 Bft) 69,57 %
27.11.2020 02:22 1,9 C 74 % 1024,3 hPa 0,0 l/m 1,6 km/h (1 Bft) W 270 0 min 0,000 mm 0,0 UV-I 0 W/m -2,2 C 1,9 C 3,2 km/h (1 Bft) 95,65 %
27.11.2020 02:21 1,9 C 74 % 1024,4 hPa 0,0 l/m 3,2 km/h (1 Bft) W-SW 247 0 min 0,000 mm 0,0 UV-I 0 W/m -2,2 C 1,9 C 4,8 km/h (1 Bft) 100,00 %
27.11.2020 02:20 1,8 C 74 % 1024,3 hPa 0,0 l/m 3,2 km/h (1 Bft) W-SW 247 0 min 0,000 mm 0,0 UV-I 0 W/m -2,3 C 1,8 C 4,8 km/h (1 Bft) 100,00 %
27.11.2020 02:19 1,8 C 74 % 1024,4 hPa 0,0 l/m 3,2 km/h (1 Bft) SW 225 0 min 0,000 mm 0,0 UV-I 0 W/m -2,3 C 1,8 C 4,8 km/h (1 Bft) 100,00 %
27.11.2020 02:18 1,8 C 74 % 1024,4 hPa 0,0 l/m 1,6 km/h (1 Bft) SW 225 0 min 0,000 mm 0,0 UV-I 0 W/m -2,3 C 1,8 C 4,8 km/h (1 Bft) 100,00 %
27.11.2020 02:17 1,8 C 74 % 1024,4 hPa 0,0 l/m 0,0 km/h (0 Bft) N 0 0 min 0,000 mm 0,0 UV-I 0 W/m -2,3 C 1,8 C 0,0 km/h (0 Bft) 100,00 %
27.11.2020 02:16 1,8 C 75 % 1024,4 hPa 0,0 l/m 0,0 km/h (0 Bft) N 0 0 min 0,000 mm 0,0 UV-I 0 W/m -2,1 C 1,8 C 0,0 km/h (0 Bft) 95,65 %
27.11.2020 02:15 1,8 C 75 % 1024,4 hPa 0,0 l/m 0,0 km/h (0 Bft) N 0 0 min 0,000 mm 0,0 UV-I 0 W/m -2,1 C 1,8 C 0,0 km/h (0 Bft) 100,00 %
27.11.2020 02:14 1,8 C 75 % 1024,4 hPa 0,0 l/m 0,0 km/h (0 Bft) N 0 0 min 0,000 mm 0,0 UV-I 0 W/m -2,1 C 1,8 C 0,0 km/h (0 Bft) 95,65 %
27.11.2020 02:13 1,8 C 76 % 1024,3 hPa 0,0 l/m 0,0 km/h (0 Bft) SW 225 0 min 0,000 mm 0,0 UV-I 0 W/m -2,0 C 1,8 C 1,6 km/h (1 Bft) 100,00 %
27.11.2020 02:12 1,8 C 76 % 1024,3 hPa 0,0 l/m 1,6 km/h (1 Bft) SW 225 0 min 0,000 mm 0,0 UV-I 0 W/m -2,0 C 1,8 C 3,2 km/h (1 Bft) 100,00 %
27.11.2020 02:11 1,7 C 76 % 1024,4 hPa 0,0 l/m 3,2 km/h (1 Bft) SW 225 0 min 0,000 mm 0,0 UV-I 0 W/m -2,1 C 1,7 C 4,8 km/h (1 Bft) 100,00 %
27.11.2020 02:10 1,7 C 76 % 1024,3 hPa 0,0 l/m 3,2 km/h (1 Bft) SW 225 0 min 0,000 mm 0,0 UV-I 0 W/m -2,1 C 1,7 C 4,8 km/h (1 Bft) 100,00 %
27.11.2020 02:09 1,7 C 76 % 1024,4 hPa 0,0 l/m 4,8 km/h (1 Bft) SW 225 0 min 0,000 mm 0,0 UV-I 0 W/m -2,1 C 0,4 C 4,8 km/h (1 Bft) 100,00 %
27.11.2020 02:08 1,7 C 76 % 1024,3 hPa 0,0 l/m 4,8 km/h (1 Bft) SW 225 0 min 0,000 mm 0,0 UV-I 0 W/m -2,1 C 0,4 C 4,8 km/h (1 Bft) 100,00 %
27.11.2020 02:07 1,7 C 76 % 1024,3 hPa 0,0 l/m 4,8 km/h (1 Bft) S-SW 202 0 min 0,000 mm 0,0 UV-I 0 W/m -2,1 C 0,4 C 6,4 km/h (2 Bft) 95,65 %
27.11.2020 02:06 1,7 C 76 % 1024,4 hPa 0,0 l/m 4,8 km/h (1 Bft) S-SW 202 0 min 0,000 mm 0,0 UV-I 0 W/m -2,1 C 0,4 C 6,4 km/h (2 Bft) 100,00 %
27.11.2020 02:05 1,7 C 76 % 1024,4 hPa 0,0 l/m 4,8 km/h (1 Bft) S-SW 202 0 min 0,000 mm 0,0 UV-I 0 W/m -2,1 C 0,4 C 6,4 km/h (2 Bft) 100,00 %
27.11.2020 02:04 1,6 C 76 % 1024,4 hPa 0,0 l/m 4,8 km/h (1 Bft) S-SW 202 0 min 0,000 mm 0,0 UV-I 0 W/m -2,2 C 0,3 C 6,4 km/h (2 Bft) 100,00 %
27.11.2020 02:03 1,6 C 76 % 1024,4 hPa 0,0 l/m 3,2 km/h (1 Bft) S-SW 202 0 min 0,000 mm 0,0 UV-I 0 W/m -2,2 C 1,6 C 4,8 km/h (1 Bft) 100,00 %
27.11.2020 02:02 1,6 C 76 % 1024,4 hPa 0,0 l/m 3,2 km/h (1 Bft) S-SW 202 0 min 0,000 mm 0,0 UV-I 0 W/m -2,2 C 1,6 C 4,8 km/h (1 Bft) 95,65 %
27.11.2020 02:01 1,6 C 77 % 1024,3 hPa 0,0 l/m 3,2 km/h (1 Bft) S-SW 202 0 min 0,000 mm 0,0 UV-I 0 W/m -2,0 C 1,6 C 4,8 km/h (1 Bft) 100,00 %
27.11.2020 02:00 1,5 C 77 % 1024,4 hPa 0,0 l/m 3,2 km/h (1 Bft) S-SW 202 0 min 0,025 mm 0,0 UV-I 0 W/m -2,1 C 1,5 C 4,8 km/h (1 Bft) 100,00 %
27.11.2020 01:59 1,6 C 77 % 1024,4 hPa 0,0 l/m 3,2 km/h (1 Bft) S-SW 202 0 min 0,000 mm 0,0 UV-I 0 W/m -2,0 C 1,6 C 4,8 km/h (1 Bft) 100,00 %
27.11.2020 01:58 1,4 C 77 % 1024,4 hPa 0,0 l/m 3,2 km/h (1 Bft) S-SW 202 0 min 0,000 mm 0,0 UV-I 0 W/m -2,2 C 1,4 C 4,8 km/h (1 Bft) 100,00 %
27.11.2020 01:57 1,4 C 78 % 1024,3 hPa 0,0 l/m 3,2 km/h (1 Bft) S-SW 202 0 min 0,000 mm 0,0 UV-I 0 W/m -2,0 C 1,4 C 4,8 km/h (1 Bft) 100,00 %
27.11.2020 01:56 1,3 C 78 % 1024,3 hPa 0,0 l/m 3,2 km/h (1 Bft) S-SW 202 0 min 0,000 mm 0,0 UV-I 0 W/m -2,1 C 1,3 C 4,8 km/h (1 Bft) 100,00 %
27.11.2020 01:55 1,2 C 79 % 1024,3 hPa 0,0 l/m 3,2 km/h (1 Bft) S-SW 202 0 min 0,000 mm 0,0 UV-I 0 W/m -2,0 C 1,2 C 4,8 km/h (1 Bft) 95,65 %
27.11.2020 01:54 1,2 C 79 % 1024,5 hPa 0,0 l/m 3,2 km/h (1 Bft) S-SW 202 0 min 0,000 mm 0,0 UV-I 0 W/m -2,0 C 1,2 C 4,8 km/h (1 Bft) 100,00 %
27.11.2020 01:53 1,1 C 79 % 1024,3 hPa 0,0 l/m 4,8 km/h (1 Bft) S-SW 202 0 min 0,000 mm 0,0 UV-I 0 W/m -2,1 C -0,2 C 4,8 km/h (1 Bft) 95,65 %
27.11.2020 01:52 0,9 C 80 % 1024,3 hPa 0,0 l/m 4,8 km/h (1 Bft) S-SW 202 0 min 0,000 mm 0,0 UV-I 0 W/m -2,2 C -0,5 C 4,8 km/h (1 Bft) 100,00 %
27.11.2020 01:51 0,8 C 80 % 1024,3 hPa 0,0 l/m 4,8 km/h (1 Bft) S-SW 202 0 min 0,000 mm 0,0 UV-I 0 W/m -2,2 C -0,6 C 6,4 km/h (2 Bft) 100,00 %
27.11.2020 01:50 0,7 C 81 % 1024,4 hPa 0,0 l/m 6,4 km/h (2 Bft) S-SW 202 0 min 0,000 mm 0,0 UV-I 0 W/m -2,2 C -1,4 C 6,4 km/h (2 Bft) 100,00 %
27.11.2020 01:49 0,6 C 81 % 1024,3 hPa 0,0 l/m 6,4 km/h (2 Bft) S-SW 202 0 min 0,000 mm 0,0 UV-I 0 W/m -2,3 C -1,5 C 6,4 km/h (2 Bft) 100,00 %
27.11.2020 01:48 0,4 C 82 % 1024,3 hPa 0,0 l/m 6,4 km/h (2 Bft) S-SW 202 0 min 0,000 mm 0,0 UV-I 0 W/m -2,3 C -1,7 C 8,0 km/h (2 Bft) 100,00 %
27.11.2020 01:47 0,3 C 82 % 1024,4 hPa 0,0 l/m 4,8 km/h (1 Bft) S-SW 202 0 min 0,000 mm 0,0 UV-I 0 W/m -2,4 C -1,2 C 8,0 km/h (2 Bft) 100,00 %
27.11.2020 01:46 0,3 C 83 % 1024,4 hPa 0,0 l/m 6,4 km/h (2 Bft) S-SW 202 0 min 0,000 mm 0,0 UV-I 0 W/m -2,2 C -1,8 C 6,4 km/h (2 Bft) 100,00 %
27.11.2020 01:45 0,3 C 83 % 1024,4 hPa 0,0 l/m 6,4 km/h (2 Bft) S-SW 202 0 min 0,000 mm 0,0 UV-I 0 W/m -2,2 C -1,8 C 8,0 km/h (2 Bft) 95,65 %
27.11.2020 01:44 0,2 C 84 % 1024,4 hPa 0,0 l/m 6,4 km/h (2 Bft) S-SW 202 0 min 0,000 mm 0,0 UV-I 0 W/m -2,2 C -2,0 C 8,0 km/h (2 Bft) 100,00 %
27.11.2020 01:43 0,1 C 84 % 1024,4 hPa 0,0 l/m 6,4 km/h (2 Bft) S-SW 202 0 min 0,000 mm 0,0 UV-I 0 W/m -2,3 C -2,1 C 8,0 km/h (2 Bft) 100,00 %
27.11.2020 01:42 0,1 C 84 % 1024,4 hPa 0,0 l/m 6,4 km/h (2 Bft) S-SW 202 0 min 0,000 mm 0,0 UV-I 0 W/m -2,3 C -2,1 C 6,4 km/h (2 Bft) 100,00 %
27.11.2020 01:41 0,1 C 84 % 1024,4 hPa 0,0 l/m 4,8 km/h (1 Bft) SW 225 0 min 0,000 mm 0,0 UV-I 0 W/m -2,3 C -1,4 C 6,4 km/h (2 Bft) 100,00 %
27.11.2020 01:40 0,1 C 85 % 1024,3 hPa 0,0 l/m 6,4 km/h (2 Bft) SW 225 0 min 0,000 mm 0,0 UV-I 0 W/m -2,1 C -2,1 C 6,4 km/h (2 Bft) 91,30 %
27.11.2020 01:39 0,1 C 84 % 1024,3 hPa 0,0 l/m 4,8 km/h (1 Bft) W-SW 247 0 min 0,000 mm 0,0 UV-I 0 W/m -2,3 C -1,4 C 6,4 km/h (2 Bft) 100,00 %
27.11.2020 01:38 0,1 C 84 % 1024,3 hPa 0,0 l/m 4,8 km/h (1 Bft) W-SW 247 0 min 0,000 mm 0,0 UV-I 0 W/m -2,3 C -1,4 C 4,8 km/h (1 Bft) 91,30 %
27.11.2020 01:37 0,1 C 84 % 1024,3 hPa 0,0 l/m 4,8 km/h (1 Bft) W-SW 247 0 min 0,000 mm 0,0 UV-I 0 W/m -2,3 C -1,4 C 6,4 km/h (2 Bft) 100,00 %
27.11.2020 01:36 0,1 C 84 % 1024,4 hPa 0,0 l/m 4,8 km/h (1 Bft) W-SW 247 0 min 0,000 mm 0,0 UV-I 0 W/m -2,3 C -1,4 C 6,4 km/h (2 Bft) 95,65 %
27.11.2020 01:35 0,1 C 84 % 1024,3 hPa 0,0 l/m 6,4 km/h (2 Bft) W-SW 247 0 min 0,000 mm 0,0 UV-I 0 W/m -2,3 C -2,1 C 6,4 km/h (2 Bft) 100,00 %
27.11.2020 01:34 0,1 C 84 % 1024,3 hPa 0,0 l/m 4,8 km/h (1 Bft) W-SW 247 0 min 0,000 mm 0,0 UV-I 0 W/m -2,3 C -1,4 C 6,4 km/h (2 Bft) 100,00 %
27.11.2020 01:33 0,2 C 84 % 1024,3 hPa 0,0 l/m 6,4 km/h (2 Bft) W-SW 247 0 min 0,000 mm 0,0 UV-I 0 W/m -2,2 C -2,0 C 6,4 km/h (2 Bft) 100,00 %
27.11.2020 01:32 0,3 C 84 % 1024,3 hPa 0,0 l/m 4,8 km/h (1 Bft) W-SW 247 0 min 0,000 mm 0,0 UV-I 0 W/m -2,1 C -1,2 C 6,4 km/h (2 Bft) 100,00 %
27.11.2020 01:31 0,4 C 83 % 1024,3 hPa 0,0 l/m 4,8 km/h (1 Bft) W-SW 247 0 min 0,000 mm 0,0 UV-I 0 W/m -2,1 C -1,0 C 6,4 km/h (2 Bft) 100,00 %
27.11.2020 01:30 0,5 C 83 % 1024,4 hPa 0,0 l/m 4,8 km/h (1 Bft) W-SW 247 0 min 0,000 mm 0,0 UV-I 0 W/m -2,0 C -0,9 C 6,4 km/h (2 Bft) 95,65 %
27.11.2020 01:29 0,6 C 82 % 1024,4 hPa 0,0 l/m 4,8 km/h (1 Bft) W-SW 247 0 min 0,000 mm 0,0 UV-I 0 W/m -2,1 C -0,8 C 4,8 km/h (1 Bft) 100,00 %
27.11.2020 01:28 0,8 C 81 % 1024,3 hPa 0,0 l/m 4,8 km/h (1 Bft) W 270 0 min 0,000 mm 0,0 UV-I 0 W/m -2,1 C -0,6 C 4,8 km/h (1 Bft) 95,65 %
27.11.2020 01:27 0,9 C 81 % 1024,3 hPa 0,0 l/m 4,8 km/h (1 Bft) W 270 0 min 0,000 mm 0,0 UV-I 0 W/m -2,0 C -0,5 C 4,8 km/h (1 Bft) 100,00 %
27.11.2020 01:26 1,0 C 80 % 1024,3 hPa 0,0 l/m 4,8 km/h (1 Bft) W 270 0 min 0,000 mm 0,0 UV-I 0 W/m -2,1 C -0,4 C 4,8 km/h (1 Bft) 100,00 %
27.11.2020 01:25 1,2 C 79 % 1024,3 hPa 0,0 l/m 4,8 km/h (1 Bft) W 270 0 min 0,000 mm 0,0 UV-I 0 W/m -2,0 C -0,1 C 4,8 km/h (1 Bft) 100,00 %
27.11.2020 01:24 1,3 C 79 % 1024,3 hPa 0,0 l/m 4,8 km/h (1 Bft) W 270 0 min 0,000 mm 0,0 UV-I 0 W/m -1,9 C -0,0 C 4,8 km/h (1 Bft) 100,00 %
27.11.2020 01:23 1,4 C 78 % 1024,4 hPa 0,0 l/m 4,8 km/h (1 Bft) W 270 0 min 0,000 mm 0,0 UV-I 0 W/m -2,0 C 0,1 C 6,4 km/h (2 Bft) 95,65 %
27.11.2020 01:22 1,7 C 77 % 1024,4 hPa 0,0 l/m 4,8 km/h (1 Bft) W 270 0 min 0,000 mm 0,0 UV-I 0 W/m -1,9 C 0,4 C 6,4 km/h (2 Bft) 100,00 %
27.11.2020 01:21 1,9 C 76 % 1024,4 hPa 0,0 l/m 6,4 km/h (2 Bft) W-NW 292 0 min 0,000 mm 0,0 UV-I 0 W/m -1,9 C 0,0 C 6,4 km/h (2 Bft) 100,00 %
27.11.2020 01:20 2,1 C 76 % 1024,4 hPa 0,0 l/m 4,8 km/h (1 Bft) W-NW 292 0 min 0,000 mm 0,0 UV-I 0 W/m -1,7 C 0,9 C 6,4 km/h (2 Bft) 100,00 %
27.11.2020 01:19 2,3 C 75 % 1024,4 hPa 0,0 l/m 4,8 km/h (1 Bft) W-NW 292 0 min 0,000 mm 0,0 UV-I 0 W/m -1,7 C 1,1 C 4,8 km/h (1 Bft) 100,00 %
27.11.2020 01:18 2,6 C 74 % 1024,4 hPa 0,0 l/m 3,2 km/h (1 Bft) W-NW 292 0 min 0,000 mm 0,0 UV-I 0 W/m -1,6 C 2,6 C 4,8 km/h (1 Bft) 95,65 %
27.11.2020 01:17 2,7 C 72 % 1024,4 hPa 0,0 l/m 4,8 km/h (1 Bft) W-NW 292 0 min 0,000 mm 0,0 UV-I 0 W/m -1,8 C 1,6 C 4,8 km/h (1 Bft) 100,00 %
27.11.2020 01:16 2,8 C 72 % 1024,4 hPa 0,0 l/m 4,8 km/h (1 Bft) W-NW 292 0 min 0,000 mm 0,0 UV-I 0 W/m -1,7 C 1,7 C 4,8 km/h (1 Bft) 100,00 %
27.11.2020 01:15 2,8 C 72 % 1024,4 hPa 0,0 l/m 3,2 km/h (1 Bft) W-NW 292 0 min 0,000 mm 0,0 UV-I 0 W/m -1,7 C 2,8 C 4,8 km/h (1 Bft) 100,00 %
27.11.2020 01:14 2,9 C 72 % 1024,4 hPa 0,0 l/m 3,2 km/h (1 Bft) W 270 0 min 0,000 mm 0,0 UV-I 0 W/m -1,6 C 2,9 C 4,8 km/h (1 Bft) 100,00 %
27.11.2020 01:13 2,9 C 72 % 1024,3 hPa 0,0 l/m 3,2 km/h (1 Bft) W 270 0 min 0,000 mm 0,0 UV-I 0 W/m -1,6 C 2,9 C 4,8 km/h (1 Bft) 100,00 %
27.11.2020 01:12 2,9 C 71 % 1024,4 hPa 0,0 l/m 3,2 km/h (1 Bft) W-SW 247 0 min 0,000 mm 0,0 UV-I 0 W/m -1,8 C 2,9 C 4,8 km/h (1 Bft) 95,65 %
27.11.2020 01:11 3,0 C 71 % 1024,4 hPa 0,0 l/m 3,2 km/h (1 Bft) W-SW 247 0 min 0,000 mm 0,0 UV-I 0 W/m -1,7 C 3,0 C 3,2 km/h (1 Bft) 95,65 %
27.11.2020 01:10 2,9 C 71 % 1024,3 hPa 0,0 l/m 3,2 km/h (1 Bft) W-SW 247 0 min 0,000 mm 0,0 UV-I 0 W/m -1,8 C 2,9 C 3,2 km/h (1 Bft) 100,00 %
27.11.2020 01:09 2,9 C 71 % 1024,3 hPa 0,0 l/m 3,2 km/h (1 Bft) W-SW 247 0 min 0,000 mm 0,0 UV-I 0 W/m -1,8 C 2,9 C 4,8 km/h (1 Bft) 100,00 %
27.11.2020 01:08 2,8 C 71 % 1024,4 hPa 0,0 l/m 3,2 km/h (1 Bft) SW 225 0 min 0,000 mm 0,0 UV-I 0 W/m -1,9 C 2,8 C 3,2 km/h (1 Bft) 100,00 %
27.11.2020 01:07 2,8 C 72 % 1024,4 hPa 0,0 l/m 3,2 km/h (1 Bft) SW 225 0 min 0,000 mm 0,0 UV-I 0 W/m -1,7 C 2,8 C 3,2 km/h (1 Bft) 95,65 %
27.11.2020 01:06 2,8 C 72 % 1024,4 hPa 0,0 l/m 3,2 km/h (1 Bft) SW 225 0 min 0,000 mm 0,0 UV-I 0 W/m -1,7 C 2,8 C 4,8 km/h (1 Bft) 100,00 %
27.11.2020 01:05 2,8 C 73 % 1024,4 hPa 0,0 l/m 4,8 km/h (1 Bft) SW 225 0 min 0,000 mm 0,0 UV-I 0 W/m -1,5 C 1,7 C 6,4 km/h (2 Bft) 100,00 %
27.11.2020 01:04 2,8 C 73 % 1024,4 hPa 0,0 l/m 4,8 km/h (1 Bft) SW 225 0 min 0,000 mm 0,0 UV-I 0 W/m -1,5 C 1,7 C 6,4 km/h (2 Bft) 100,00 %
27.11.2020 01:03 2,8 C 73 % 1024,4 hPa 0,0 l/m 3,2 km/h (1 Bft) SW 225 0 min 0,000 mm 0,0 UV-I 0 W/m -1,5 C 2,8 C 4,8 km/h (1 Bft) 100,00 %
27.11.2020 01:02 2,8 C 73 % 1024,4 hPa 0,0 l/m 4,8 km/h (1 Bft) SW 225 0 min 0,000 mm 0,0 UV-I 0 W/m -1,5 C 1,7 C 6,4 km/h (2 Bft) 100,00 %
27.11.2020 01:01 2,7 C 73 % 1024,4 hPa 0,0 l/m 4,8 km/h (1 Bft) SW 225 0 min 0,000 mm 0,0 UV-I 0 W/m -1,6 C 1,6 C 6,4 km/h (2 Bft) 100,00 %
27.11.2020 01:00 2,7 C 73 % 1024,4 hPa 0,0 l/m 4,8 km/h (1 Bft) SW 225 0 min 0,025 mm 0,0 UV-I 0 W/m -1,6 C 1,6 C 6,4 km/h (2 Bft) 100,00 %
27.11.2020 00:59 2,7 C 74 % 1024,4 hPa 0,0 l/m 6,4 km/h (2 Bft) S-SW 202 0 min 0,000 mm 0,0 UV-I 0 W/m -1,5 C 0,9 C 8,0 km/h (2 Bft) 95,65 %
27.11.2020 00:58 2,7 C 74 % 1024,4 hPa 0,0 l/m 6,4 km/h (2 Bft) S-SW 202 0 min 0,000 mm 0,0 UV-I 0 W/m -1,5 C 0,9 C 8,0 km/h (2 Bft) 100,00 %
27.11.2020 00:57 2,6 C 74 % 1024,4 hPa 0,0 l/m 6,4 km/h (2 Bft) S-SW 202 0 min 0,000 mm 0,0 UV-I 0 W/m -1,6 C 0,8 C 8,0 km/h (2 Bft) 100,00 %
27.11.2020 00:56 2,5 C 74 % 1024,4 hPa 0,0 l/m 6,4 km/h (2 Bft) S-SW 202 0 min 0,000 mm 0,0 UV-I 0 W/m -1,7 C 0,7 C 8,0 km/h (2 Bft) 100,00 %
27.11.2020 00:55 2,4 C 74 % 1024,5 hPa 0,0 l/m 6,4 km/h (2 Bft) S-SW 202 0 min 0,000 mm 0,0 UV-I 0 W/m -1,7 C 0,6 C 8,0 km/h (2 Bft) 100,00 %
27.11.2020 00:54 2,4 C 75 % 1024,6 hPa 0,0 l/m 8,0 km/h (2 Bft) S-SW 202 0 min 0,000 mm 0,0 UV-I 0 W/m -1,6 C 0,1 C 9,7 km/h (2 Bft) 95,65 %
27.11.2020 00:53 2,3 C 75 % 1024,5 hPa 0,0 l/m 8,0 km/h (2 Bft) S-SW 202 0 min 0,000 mm 0,0 UV-I 0 W/m -1,7 C -0,0 C 9,7 km/h (2 Bft) 100,00 %
27.11.2020 00:52 2,3 C 76 % 1024,6 hPa 0,0 l/m 8,0 km/h (2 Bft) S-SW 202 0 min 0,000 mm 0,0 UV-I 0 W/m -1,5 C -0,0 C 9,7 km/h (2 Bft) 95,65 %
27.11.2020 00:51 2,2 C 76 % 1024,5 hPa 0,0 l/m 8,0 km/h (2 Bft) S-SW 202 0 min 0,000 mm 0,0 UV-I 0 W/m -1,6 C -0,2 C 9,7 km/h (2 Bft) 100,00 %
27.11.2020 00:50 2,1 C 76 % 1024,6 hPa 0,0 l/m 8,0 km/h (2 Bft) S-SW 202 0 min 0,000 mm 0,0 UV-I 0 W/m -1,7 C -0,3 C 9,7 km/h (2 Bft) 100,00 %
27.11.2020 00:49 2,1 C 76 % 1024,6 hPa 0,0 l/m 8,0 km/h (2 Bft) S-SW 202 0 min 0,000 mm 0,0 UV-I 0 W/m -1,7 C -0,3 C 9,7 km/h (2 Bft) 100,00 %
27.11.2020 00:48 1,9 C 77 % 1024,7 hPa 0,0 l/m 8,0 km/h (2 Bft) S-SW 202 0 min 0,000 mm 0,0 UV-I 0 W/m -1,7 C -0,5 C 8,0 km/h (2 Bft) 100,00 %
27.11.2020 00:47 1,9 C 77 % 1024,6 hPa 0,0 l/m 6,4 km/h (2 Bft) S-SW 202 0 min 0,000 mm 0,0 UV-I 0 W/m -1,7 C 0,0 C 8,0 km/h (2 Bft) 91,30 %
27.11.2020 00:46 1,9 C 77 % 1024,7 hPa 0,0 l/m 6,4 km/h (2 Bft) SW 225 0 min 0,000 mm 0,0 UV-I 0 W/m -1,7 C 0,0 C 8,0 km/h (2 Bft) 100,00 %
27.11.2020 00:45 1,8 C 77 % 1024,7 hPa 0,0 l/m 8,0 km/h (2 Bft) SW 225 0 min 0,000 mm 0,0 UV-I 0 W/m -1,8 C -0,6 C 8,0 km/h (2 Bft) 100,00 %
27.11.2020 00:44 1,8 C 77 % 1024,6 hPa 0,0 l/m 6,4 km/h (2 Bft) SW 225 0 min 0,000 mm 0,0 UV-I 0 W/m -1,8 C -0,1 C 8,0 km/h (2 Bft) 100,00 %
27.11.2020 00:43 1,8 C 78 % 1024,7 hPa 0,0 l/m 6,4 km/h (2 Bft) SW 225 0 min 0,000 mm 0,0 UV-I 0 W/m -1,6 C -0,1 C 8,0 km/h (2 Bft) 100,00 %
27.11.2020 00:42 1,7 C 78 % 1024,7 hPa 0,0 l/m 8,0 km/h (2 Bft) SW 225 0 min 0,000 mm 0,0 UV-I 0 W/m -1,7 C -0,7 C 8,0 km/h (2 Bft) 100,00 %
27.11.2020 00:41 1,6 C 78 % 1024,8 hPa 0,0 l/m 8,0 km/h (2 Bft) SW 225 0 min 0,000 mm 0,0 UV-I 0 W/m -1,8 C -0,9 C 8,0 km/h (2 Bft) 100,00 %
27.11.2020 00:40 1,5 C 78 % 1024,8 hPa 0,0 l/m 6,4 km/h (2 Bft) SW 225 0 min 0,000 mm 0,0 UV-I 0 W/m -1,9 C -0,4 C 8,0 km/h (2 Bft) 100,00 %
27.11.2020 00:39 1,4 C 79 % 1024,8 hPa 0,0 l/m 8,0 km/h (2 Bft) SW 225 0 min 0,000 mm 0,0 UV-I 0 W/m -1,8 C -1,1 C 8,0 km/h (2 Bft) 100,00 %
27.11.2020 00:38 1,3 C 79 % 1024,8 hPa 0,0 l/m 8,0 km/h (2 Bft) SW 225 0 min 0,000 mm 0,0 UV-I 0 W/m -1,9 C -1,2 C 8,0 km/h (2 Bft) 95,65 %
27.11.2020 00:37 1,3 C 79 % 1024,8 hPa 0,0 l/m 6,4 km/h (2 Bft) SW 225 0 min 0,000 mm 0,0 UV-I 0 W/m -1,9 C -0,7 C 8,0 km/h (2 Bft) 91,30 %
27.11.2020 00:36 1,3 C 80 % 1024,8 hPa 0,0 l/m 6,4 km/h (2 Bft) SW 225 0 min 0,000 mm 0,0 UV-I 0 W/m -1,8 C -0,7 C 8,0 km/h (2 Bft) 100,00 %
27.11.2020 00:35 1,2 C 80 % 1024,8 hPa 0,0 l/m 6,4 km/h (2 Bft) SW 225 0 min 0,000 mm 0,0 UV-I 0 W/m -1,9 C -0,8 C 6,4 km/h (2 Bft) 95,65 %
27.11.2020 00:34 1,2 C 80 % 1024,9 hPa 0,0 l/m 4,8 km/h (1 Bft) SW 225 0 min 0,000 mm 0,0 UV-I 0 W/m -1,9 C -0,1 C 6,4 km/h (2 Bft) 100,00 %
27.11.2020 00:33 1,2 C 80 % 1024,9 hPa 0,0 l/m 6,4 km/h (2 Bft) SW 225 0 min 0,000 mm 0,0 UV-I 0 W/m -1,9 C -0,8 C 6,4 km/h (2 Bft) 100,00 %
27.11.2020 00:32 1,1 C 80 % 1025,0 hPa 0,0 l/m 6,4 km/h (2 Bft) SW 225 0 min 0,000 mm 0,0 UV-I 0 W/m -2,0 C -0,9 C 8,0 km/h (2 Bft) 100,00 %
27.11.2020 00:31 1,1 C 80 % 1025,1 hPa 0,0 l/m 6,4 km/h (2 Bft) W-SW 247 0 min 0,000 mm 0,0 UV-I 0 W/m -2,0 C -0,9 C 6,4 km/h (2 Bft) 95,65 %
27.11.2020 00:30 1,1 C 80 % 1025,0 hPa 0,0 l/m 6,4 km/h (2 Bft) W-SW 247 0 min 0,000 mm 0,0 UV-I 0 W/m -2,0 C -0,9 C 6,4 km/h (2 Bft) 100,00 %
27.11.2020 00:29 1,0 C 80 % 1025,1 hPa 0,0 l/m 4,8 km/h (1 Bft) W-SW 247 0 min 0,000 mm 0,0 UV-I 0 W/m -2,1 C -0,4 C 6,4 km/h (2 Bft) 100,00 %
27.11.2020 00:28 1,0 C 81 % 1025,0 hPa 0,0 l/m 4,8 km/h (1 Bft) W-SW 247 0 min 0,000 mm 0,0 UV-I 0 W/m -1,9 C -0,4 C 6,4 km/h (2 Bft) 95,65 %
27.11.2020 00:27 0,9 C 81 % 1025,1 hPa 0,0 l/m 4,8 km/h (1 Bft) W-SW 247 0 min 0,000 mm 0,0 UV-I 0 W/m -2,0 C -0,5 C 6,4 km/h (2 Bft) 100,00 %
27.11.2020 00:26 0,9 C 81 % 1025,1 hPa 0,0 l/m 4,8 km/h (1 Bft) W-SW 247 0 min 0,000 mm 0,0 UV-I 0 W/m -2,0 C -0,5 C 6,4 km/h (2 Bft) 95,65 %
27.11.2020 00:25 1,0 C 81 % 1025,1 hPa 0,0 l/m 4,8 km/h (1 Bft) W-SW 247 0 min 0,000 mm 0,0 UV-I 0 W/m -1,9 C -0,4 C 6,4 km/h (2 Bft) 95,65 %
27.11.2020 00:24 0,9 C 81 % 1025,1 hPa 0,0 l/m 4,8 km/h (1 Bft) W-SW 247 0 min 0,000 mm 0,0 UV-I 0 W/m -2,0 C -0,5 C 6,4 km/h (2 Bft) 100,00 %
27.11.2020 00:23 1,0 C 81 % 1025,2 hPa 0,0 l/m 4,8 km/h (1 Bft) W-SW 247 0 min 0,000 mm 0,0 UV-I 0 W/m -1,9 C -0,4 C 4,8 km/h (1 Bft) 100,00 %
27.11.2020 00:22 1,0 C 81 % 1025,1 hPa 0,0 l/m 3,2 km/h (1 Bft) W-SW 247 0 min 0,000 mm 0,0 UV-I 0 W/m -1,9 C 1,0 C 4,8 km/h (1 Bft) 100,00 %
27.11.2020 00:21 0,9 C 81 % 1025,1 hPa 0,0 l/m 4,8 km/h (1 Bft) W-SW 247 0 min 0,000 mm 0,0 UV-I 0 W/m -2,0 C -0,5 C 4,8 km/h (1 Bft) 100,00 %
27.11.2020 00:20 0,9 C 81 % 1025,1 hPa 0,0 l/m 4,8 km/h (1 Bft) W-SW 247 0 min 0,000 mm 0,0 UV-I 0 W/m -2,0 C -0,5 C 4,8 km/h (1 Bft) 100,00 %
27.11.2020 00:19 0,9 C 81 % 1025,1 hPa 0,0 l/m 4,8 km/h (1 Bft) SW 225 0 min 0,000 mm 0,0 UV-I 0 W/m -2,0 C -0,5 C 4,8 km/h (1 Bft) 100,00 %
27.11.2020 00:18 0,9 C 82 % 1025,1 hPa 0,0 l/m 4,8 km/h (1 Bft) SW 225 0 min 0,000 mm 0,0 UV-I 0 W/m -1,8 C -0,5 C 6,4 km/h (2 Bft) 100,00 %
27.11.2020 00:17 0,8 C 82 % 1025,2 hPa 0,0 l/m 4,8 km/h (1 Bft) SW 225 0 min 0,000 mm 0,0 UV-I 0 W/m -1,9 C -0,6 C 4,8 km/h (1 Bft) 100,00 %
27.11.2020 00:16 0,8 C 82 % 1025,1 hPa 0,0 l/m 4,8 km/h (1 Bft) SW 225 0 min 0,000 mm 0,0 UV-I 0 W/m -1,9 C -0,6 C 4,8 km/h (1 Bft) 95,65 %
27.11.2020 00:15 0,8 C 82 % 1025,2 hPa 0,0 l/m 4,8 km/h (1 Bft) SW 225 0 min 0,000 mm 0,0 UV-I 0 W/m -1,9 C -0,6 C 6,4 km/h (2 Bft) 100,00 %
27.11.2020 00:14 0,8 C 82 % 1025,1 hPa 0,0 l/m 4,8 km/h (1 Bft) SW 225 0 min 0,000 mm 0,0 UV-I 0 W/m -1,9 C -0,6 C 6,4 km/h (2 Bft) 100,00 %
27.11.2020 00:13 0,7 C 82 % 1025,2 hPa 0,0 l/m 4,8 km/h (1 Bft) SW 225 0 min 0,000 mm 0,0 UV-I 0 W/m -2,0 C -0,7 C 6,4 km/h (2 Bft) 100,00 %
27.11.2020 00:12 0,7 C 83 % 1025,1 hPa 0,0 l/m 4,8 km/h (1 Bft) SW 225 0 min 0,000 mm 0,0 UV-I 0 W/m -1,8 C -0,7 C 6,4 km/h (2 Bft) 100,00 %
27.11.2020 00:11 0,6 C 83 % 1025,1 hPa 0,0 l/m 4,8 km/h (1 Bft) SW 225 0 min 0,000 mm 0,0 UV-I 0 W/m -1,9 C -0,8 C 6,4 km/h (2 Bft) 100,00 %
27.11.2020 00:10 0,6 C 83 % 1025,2 hPa 0,0 l/m 6,4 km/h (2 Bft) SW 225 0 min 0,000 mm 0,0 UV-I 0 W/m -1,9 C -1,5 C 6,4 km/h (2 Bft) 100,00 %
27.11.2020 00:09 0,5 C 83 % 1025,2 hPa 0,0 l/m 4,8 km/h (1 Bft) SW 225 0 min 0,000 mm 0,0 UV-I 0 W/m -2,0 C -0,9 C 6,4 km/h (2 Bft) 100,00 %
27.11.2020 00:08 0,4 C 83 % 1025,2 hPa 0,0 l/m 4,8 km/h (1 Bft) SW 225 0 min 0,000 mm 0,0 UV-I 0 W/m -2,1 C -1,0 C 6,4 km/h (2 Bft) 95,65 %
27.11.2020 00:07 0,4 C 83 % 1025,1 hPa 0,0 l/m 4,8 km/h (1 Bft) SW 225 0 min 0,000 mm 0,0 UV-I 0 W/m -2,1 C -1,0 C 6,4 km/h (2 Bft) 100,00 %
27.11.2020 00:06 0,3 C 84 % 1025,2 hPa 0,0 l/m 4,8 km/h (1 Bft) SW 225 0 min 0,000 mm 0,0 UV-I 0 W/m -2,1 C -1,2 C 6,4 km/h (2 Bft) 100,00 %
27.11.2020 00:05 0,3 C 84 % 1025,2 hPa 0,0 l/m 6,4 km/h (2 Bft) SW 225 0 min 0,000 mm 0,0 UV-I 0 W/m -2,1 C -1,8 C 6,4 km/h (2 Bft) 100,00 %
27.11.2020 00:04 0,2 C 84 % 1025,2 hPa 0,0 l/m 6,4 km/h (2 Bft) SW 225 0 min 0,000 mm 0,0 UV-I 0 W/m -2,2 C -2,0 C 8,0 km/h (2 Bft) 100,00 %
27.11.2020 00:03 0,2 C 85 % 1025,1 hPa 0,0 l/m 8,0 km/h (2 Bft) SW 225 0 min 0,000 mm 0,0 UV-I 0 W/m -2,0 C -2,5 C 8,0 km/h (2 Bft) 95,65 %
27.11.2020 00:02 0,1 C 85 % 1025,1 hPa 0,0 l/m 8,0 km/h (2 Bft) SW 225 0 min 0,000 mm 0,0 UV-I 0 W/m -2,1 C -2,6 C 8,0 km/h (2 Bft) 100,00 %
27.11.2020 00:01 0,1 C 85 % 1025,2 hPa 0,0 l/m 6,4 km/h (2 Bft) SW 225 0 min 0,000 mm 0,0 UV-I 0 W/m -2,1 C -2,1 C 6,4 km/h (2 Bft) 91,30 %
27.11.2020 00:00 0,0 C 86 % 1025,2 hPa 0,0 l/m 6,4 km/h (2 Bft) SW 225 0 min 0,000 mm 0,0 UV-I 0 W/m -2,1 C -2,2 C 8,0 km/h (2 Bft) 100,00 %
_ Min-Zeit 06:44 04:14 03:42 - 02:13 - - - - - - 06:52 06:44 02:14 02:39
Minimum _ -1,6 C 69 % 1023,5 hPa - 0,0 km/h (0 Bft) - - - - - - -3,3 C -4,0 C 0,0 km/h (0 Bft) 8,70 %
_ Max-Zeit 01:11 06:45 00:00 00:00 00:02 - - 00:00 01:00 00:00 00:00 00:58 01:11 00:49 00:00
Maximum _ 3,0 C 90 % 1025,2 hPa 0,0 l/m 8,0 km/h
SW (2 Bft)
- - 0 min 0,025 mm 0,0 UV-I 0 W/m -1,5 C 3,0 C 9,7 km/h
S-SW (2 Bft)
100,00 %
Durchschnitt _ 0,9 C 79 % 1024,0 hPa #0,0 l/m 4,4 km/h (1 Bft) W-SW - #0 min. #0,125 mm 0,0 UV-I 0 W/m -2,3 C -0,1 C 5,3 km/h (1 Bft) 90,74 %